Time,TemperatureF,DewpointF,PressureIn,WindDirection,WindDirectionDegrees,WindSpeedMPH,WindSpeedGustMPH,Humidity,HourlyPrecipIn,Conditions,Clouds,dailyrainin,SoftwareType,DateUTC
2013-01-05 00:01:00,31.0,21.9,30.30,South,180,0.0,0.0,65,-99.99,,,-99.99,WSDL version 423,2013-01-05 06:01:00,
2013-01-05 00:03:00,31.0,21.9,30.30,South,180,0.0,0.0,66,-99.99,,,-99.99,WSDL version 423,2013-01-05 06:03:00,
2013-01-05 00:04:00,31.0,22.0,30.30,South,180,0.0,1.1,66,-99.99,,,-99.99,WSDL version 423,2013-01-05 06:04:00,
2013-01-05 00:07:00,30.9,22.0,30.30,South,180,0.0,1.3,66,-99.99,,,-99.99,WSDL version 423,2013-01-05 06:07:00,
2013-01-05 00:09:00,30.9,22.0,30.30,South,180,0.9,1.3,66,-99.99,,,-99.99,WSDL version 423,2013-01-05 06:09:00,
2013-01-05 00:10:00,30.9,22.0,30.30,South,180,0.7,1.3,66,-99.99,,,-99.99,WSDL version 423,2013-01-05 06:10:00,
2013-01-05 00:14:00,30.8,22.0,30.30,SSW,203,0.7,1.6,66,-99.99,,,-99.99,WSDL version 423,2013-01-05 06:14:00,
2013-01-05 00:15:00,30.8,22.0,30.30,SSW,203,0.3,1.6,66,-99.99,,,-99.99,WSDL version 423,2013-01-05 06:15:00,
2013-01-05 00:18:00,30.8,21.9,30.30,SSW,203,0.0,1.6,66,-99.99,,,-99.99,WSDL version 423,2013-01-05 06:18:00,
2013-01-05 00:22:00,30.8,22.0,30.30,SSW,203,1.2,2.0,66,-99.99,,,-99.99,WSDL version 423,2013-01-05 06:22:00,
2013-01-05 00:23:00,30.9,22.0,30.30,SSW,203,1.0,2.0,66,-99.99,,,-99.99,WSDL version 423,2013-01-05 06:23:00,
2013-01-05 00:24:00,30.9,22.0,30.30,SSW,203,0.9,2.0,66,-99.99,,,-99.99,WSDL version 423,2013-01-05 06:24:00,
2013-01-05 00:25:00,30.9,22.1,30.30,SSW,203,0.4,2.0,67,-99.99,,,-99.99,WSDL version 423,2013-01-05 06:25:00,
2013-01-05 00:29:00,30.9,22.3,30.30,SSW,203,0.0,2.0,67,-99.99,,,-99.99,WSDL version 423,2013-01-05 06:29:00,
2013-01-05 00:31:00,30.9,22.3,30.30,SSW,203,0.0,1.3,67,-99.99,,,-99.99,WSDL version 423,2013-01-05 06:31:00,
2013-01-05 00:34:00,30.9,22.3,30.30,SSW,203,0.0,0.0,67,-99.99,,,-99.99,WSDL version 423,2013-01-05 06:34:00,
2013-01-05 00:36:00,30.8,22.3,30.30,SSW,203,0.0,0.0,67,-99.99,,,-99.99,WSDL version 423,2013-01-05 06:36:00,
2013-01-05 00:39:00,30.7,22.2,30.30,SSW,203,0.0,0.0,67,-99.99,,,-99.99,WSDL version 423,2013-01-05 06:39:00,
2013-01-05 00:41:00,30.7,22.1,30.30,SSW,203,0.0,0.0,67,-99.99,,,-99.99,WSDL version 423,2013-01-05 06:41:00,
2013-01-05 00:44:00,30.6,22.0,30.30,SSW,203,0.0,0.0,67,-99.99,,,-99.99,WSDL version 423,2013-01-05 06:44:00,
2013-01-05 00:46:00,30.5,22.0,30.30,SSW,203,0.0,0.0,67,-99.99,,,-99.99,WSDL version 423,2013-01-05 06:46:00,
2013-01-05 00:51:00,30.5,22.2,30.30,SSW,203,0.0,0.0,68,-99.99,,,-99.99,WSDL version 423,2013-01-05 06:51:00,
2013-01-05 00:53:00,30.5,22.3,30.30,SSW,203,0.0,0.0,68,-99.99,,,-99.99,WSDL version 423,2013-01-05 06:53:00,
2013-01-05 00:55:00,30.5,22.3,30.30,SSW,203,0.0,0.0,68,-99.99,,,-99.99,WSDL version 423,2013-01-05 06:55:00,
2013-01-05 00:57:00,30.5,22.3,30.30,SSW,203,0.0,0.0,68,-99.99,,,-99.99,WSDL version 423,2013-01-05 06:57:00,
2013-01-05 00:58:00,30.5,22.3,30.30,SSW,203,0.0,0.0,68,-99.99,,,-99.99,WSDL version 423,2013-01-05 06:58:00,
2013-01-05 01:02:00,30.5,22.3,30.30,SSW,203,0.0,1.1,68,-99.99,,,-99.99,WSDL version 423,2013-01-05 07:02:00,
2013-01-05 01:03:00,30.5,22.3,30.30,SSW,203,0.0,1.1,68,-99.99,,,-99.99,WSDL version 423,2013-01-05 07:03:00,
2013-01-05 01:08:00,30.5,22.6,30.30,SSW,203,0.0,1.1,69,-99.99,,,-99.99,WSDL version 423,2013-01-05 07:08:00,
2013-01-05 01:09:00,30.6,22.6,30.30,SSW,203,0.0,0.0,69,-99.99,,,-99.99,WSDL version 423,2013-01-05 07:09:00,
2013-01-05 01:10:00,30.6,22.6,30.30,SSW,203,0.0,0.0,69,-99.99,,,-99.99,WSDL version 423,2013-01-05 07:10:00,
2013-01-05 01:14:00,30.6,22.6,30.30,SSW,203,0.0,0.0,69,-99.99,,,-99.99,WSDL version 423,2013-01-05 07:14:00,
2013-01-05 01:15:00,30.6,22.6,30.30,SSW,203,0.0,0.0,69,-99.99,,,-99.99,WSDL version 423,2013-01-05 07:15:00,
2013-01-05 01:18:00,30.7,22.7,30.30,SSW,203,0.0,1.3,69,-99.99,,,-99.99,WSDL version 423,2013-01-05 07:18:00,
2013-01-05 01:23:00,30.7,22.9,30.30,SSW,203,0.9,2.0,70,-99.99,,,-99.99,WSDL version 423,2013-01-05 07:23:00,
2013-01-05 01:24:00,30.7,22.9,30.30,SSW,203,0.9,2.0,70,-99.99,,,-99.99,WSDL version 423,2013-01-05 07:24:00,
2013-01-05 01:25:00,30.7,23.0,30.30,SSW,203,0.4,2.0,70,-99.99,,,-99.99,WSDL version 423,2013-01-05 07:25:00,
2013-01-05 01:29:00,30.7,23.0,30.30,SSW,203,0.0,2.0,70,-99.99,,,-99.99,WSDL version 423,2013-01-05 07:29:00,
2013-01-05 01:30:00,30.7,23.0,30.30,SSW,203,0.0,2.0,70,-99.99,,,-99.99,WSDL version 423,2013-01-05 07:30:00,
2013-01-05 01:35:00,30.5,22.8,30.30,SW,225,1.1,1.6,70,-99.99,,,-99.99,WSDL version 423,2013-01-05 07:35:00,
2013-01-05 01:36:00,30.5,22.7,30.30,SW,225,1.1,1.6,70,-99.99,,,-99.99,WSDL version 423,2013-01-05 07:36:00,
2013-01-05 01:37:00,30.4,22.7,30.30,SW,225,0.8,1.6,70,-99.99,,,-99.99,WSDL version 423,2013-01-05 07:37:00,
2013-01-05 01:38:00,30.4,22.7,30.30,SW,225,0.3,1.6,70,-99.99,,,-99.99,WSDL version 423,2013-01-05 07:38:00,
2013-01-05 01:41:00,30.4,22.7,30.30,WSW,251,0.5,2.5,70,-99.99,,,-99.99,WSDL version 423,2013-01-05 07:41:00,
2013-01-05 01:43:00,30.4,22.7,30.30,WSW,248,1.3,2.5,70,-99.99,,,-99.99,WSDL version 423,2013-01-05 07:43:00,
2013-01-05 01:44:00,30.4,22.7,30.30,WSW,248,1.1,2.5,70,-99.99,,,-99.99,WSDL version 423,2013-01-05 07:44:00,
2013-01-05 01:47:00,30.4,22.7,30.30,WSW,248,0.9,2.5,70,-99.99,,,-99.99,WSDL version 423,2013-01-05 07:47:00,
2013-01-05 01:49:00,30.4,22.7,30.30,WSW,248,0.2,2.5,70,-99.99,,,-99.99,WSDL version 423,2013-01-05 07:49:00,
2013-01-05 01:52:00,30.4,22.7,30.30,WSW,248,0.0,1.3,70,-99.99,,,-99.99,WSDL version 423,2013-01-05 07:52:00,
2013-01-05 01:53:00,30.4,22.7,30.30,WSW,248,0.3,1.3,70,-99.99,,,-99.99,WSDL version 423,2013-01-05 07:53:00,
2013-01-05 01:55:00,30.4,22.7,30.30,WSW,248,0.2,1.3,70,-99.99,,,-99.99,WSDL version 423,2013-01-05 07:55:00,
2013-01-05 01:57:00,30.4,22.8,30.30,WSW,248,0.0,1.3,71,-99.99,,,-99.99,WSDL version 423,2013-01-05 07:57:00,
2013-01-05 02:03:00,30.4,22.9,30.30,SW,225,0.3,1.6,71,-99.99,,,-99.99,WSDL version 423,2013-01-05 08:03:00,
2013-01-05 02:04:00,30.4,22.9,30.30,SW,225,0.8,1.6,71,-99.99,,,-99.99,WSDL version 423,2013-01-05 08:04:00,
2013-01-05 02:05:00,30.4,22.9,30.30,SW,217,1.1,1.6,71,-99.99,,,-99.99,WSDL version 423,2013-01-05 08:05:00,
2013-01-05 02:07:00,30.4,22.9,30.30,SSW,203,1.1,2.0,71,-99.99,,,-99.99,WSDL version 423,2013-01-05 08:07:00,
2013-01-05 02:08:00,30.4,22.9,30.30,SSW,203,0.9,2.0,71,-99.99,,,-99.99,WSDL version 423,2013-01-05 08:08:00,
2013-01-05 02:09:00,30.4,22.9,30.30,SSW,203,0.3,2.0,71,-99.99,,,-99.99,WSDL version 423,2013-01-05 08:09:00,
2013-01-05 02:10:00,30.4,22.9,30.30,SSW,203,0.0,2.0,71,-99.99,,,-99.99,WSDL version 423,2013-01-05 08:10:00,
2013-01-05 02:13:00,30.4,22.9,30.30,SSW,203,0.1,2.0,71,-99.99,,,-99.99,WSDL version 423,2013-01-05 08:13:00,
2013-01-05 02:15:00,30.4,23.0,30.30,SSW,209,0.0,2.0,72,-99.99,,,-99.99,WSDL version 423,2013-01-05 08:15:00,
2013-01-05 02:16:00,30.4,23.1,30.30,SW,221,0.1,2.0,72,-99.99,,,-99.99,WSDL version 423,2013-01-05 08:16:00,
2013-01-05 02:17:00,30.5,23.2,30.30,SW,225,0.6,1.3,72,-99.99,,,-99.99,WSDL version 423,2013-01-05 08:17:00,
2013-01-05 02:19:00,30.5,23.4,30.30,SSW,206,1.3,2.0,72,-99.99,,,-99.99,WSDL version 423,2013-01-05 08:19:00,
2013-01-05 02:22:00,30.5,23.4,30.30,SSW,203,0.0,2.0,72,-99.99,,,-99.99,WSDL version 423,2013-01-05 08:22:00,
2013-01-05 02:24:00,30.5,23.4,30.30,SSW,203,0.0,2.0,72,-99.99,,,-99.99,WSDL version 423,2013-01-05 08:24:00,
2013-01-05 02:25:00,30.5,23.5,30.30,SSW,203,0.0,2.0,72,-99.99,,,-99.99,WSDL version 423,2013-01-05 08:25:00,
2013-01-05 02:28:00,30.5,23.6,30.30,SSW,203,0.0,1.3,72,-99.99,,,-99.99,WSDL version 423,2013-01-05 08:28:00,
2013-01-05 02:30:00,30.5,23.6,30.30,SSW,203,0.0,0.9,72,-99.99,,,-99.99,WSDL version 423,2013-01-05 08:30:00,
2013-01-05 02:33:00,30.5,23.6,30.30,SSW,203,0.0,0.9,72,-99.99,,,-99.99,WSDL version 423,2013-01-05 08:33:00,
2013-01-05 02:35:00,30.5,23.6,30.30,SSW,203,0.0,0.0,72,-99.99,,,-99.99,WSDL version 423,2013-01-05 08:35:00,
2013-01-05 02:36:00,30.5,23.6,30.30,SSW,203,0.0,0.0,72,-99.99,,,-99.99,WSDL version 423,2013-01-05 08:36:00,
2013-01-05 02:39:00,30.5,23.6,30.30,SSW,203,0.4,1.3,72,-99.99,,,-99.99,WSDL version 423,2013-01-05 08:39:00,
2013-01-05 02:40:00,30.5,23.6,30.30,SSW,203,0.2,1.3,72,-99.99,,,-99.99,WSDL version 423,2013-01-05 08:40:00,
2013-01-05 02:42:00,30.5,23.6,30.30,SSW,203,0.7,1.6,72,-99.99,,,-99.99,WSDL version 423,2013-01-05 08:42:00,
2013-01-05 02:44:00,30.5,23.6,30.30,SSW,203,0.8,1.6,72,-99.99,,,-99.99,WSDL version 423,2013-01-05 08:44:00,
2013-01-05 02:46:00,30.5,23.6,30.30,SSW,203,0.0,1.6,72,-99.99,,,-99.99,WSDL version 423,2013-01-05 08:46:00,
2013-01-05 02:47:00,30.5,23.6,30.30,SSW,203,0.0,1.6,72,-99.99,,,-99.99,WSDL version 423,2013-01-05 08:47:00,
2013-01-05 02:49:00,30.5,23.6,30.30,SSW,206,0.1,2.2,72,-99.99,,,-99.99,WSDL version 423,2013-01-05 08:49:00,
2013-01-05 02:51:00,30.4,23.5,30.30,SSW,212,1.1,2.2,72,-99.99,,,-99.99,WSDL version 423,2013-01-05 08:51:00,
2013-01-05 02:52:00,30.4,23.5,30.30,SSW,203,1.1,2.2,72,-99.99,,,-99.99,WSDL version 423,2013-01-05 08:52:00,
2013-01-05 02:56:00,30.2,23.3,30.30,SSW,203,0.0,2.2,72,-99.99,,,-99.99,WSDL version 423,2013-01-05 08:56:00,
2013-01-05 02:58:00,30.1,23.2,30.30,SSW,203,0.0,2.2,72,-99.99,,,-99.99,WSDL version 423,2013-01-05 08:58:00,
2013-01-05 03:02:00,30.0,23.1,30.30,SSW,203,0.0,1.1,72,-99.99,,,-99.99,WSDL version 423,2013-01-05 09:02:00,
2013-01-05 03:03:00,30.0,23.2,30.30,SSW,203,0.0,0.9,73,-99.99,,,-99.99,WSDL version 423,2013-01-05 09:03:00,
2013-01-05 03:04:00,30.0,23.2,30.30,SSW,203,0.0,0.0,73,-99.99,,,-99.99,WSDL version 423,2013-01-05 09:04:00,
2013-01-05 03:07:00,30.0,23.4,30.30,SSW,203,0.0,0.0,73,-99.99,,,-99.99,WSDL version 423,2013-01-05 09:07:00,
2013-01-05 03:08:00,30.0,23.4,30.30,SSW,203,0.0,0.0,73,-99.99,,,-99.99,WSDL version 423,2013-01-05 09:08:00,
2013-01-05 03:09:00,30.0,23.4,30.30,SSW,203,0.0,0.0,73,-99.99,,,-99.99,WSDL version 423,2013-01-05 09:09:00,
2013-01-05 03:13:00,30.0,23.4,30.30,SSW,203,0.0,0.0,73,-99.99,,,-99.99,WSDL version 423,2013-01-05 09:13:00,
2013-01-05 03:14:00,30.0,23.4,30.30,SSW,203,0.0,0.0,73,-99.99,,,-99.99,WSDL version 423,2013-01-05 09:14:00,
2013-01-05 03:15:00,30.0,23.4,30.30,SSW,203,0.0,1.1,73,-99.99,,,-99.99,WSDL version 423,2013-01-05 09:15:00,
2013-01-05 03:17:00,29.9,23.3,30.30,SSW,203,0.0,1.1,73,-99.99,,,-99.99,WSDL version 423,2013-01-05 09:17:00,
2013-01-05 03:18:00,29.9,23.3,30.30,SSW,203,0.0,1.1,73,-99.99,,,-99.99,WSDL version 423,2013-01-05 09:18:00,
2013-01-05 03:20:00,29.9,23.3,30.30,SSW,203,0.0,1.1,73,-99.99,,,-99.99,WSDL version 423,2013-01-05 09:20:00,
2013-01-05 03:21:00,30.0,23.4,30.30,SSW,203,0.0,1.1,73,-99.99,,,-99.99,WSDL version 423,2013-01-05 09:21:00,
2013-01-05 03:23:00,30.0,23.4,30.30,SSW,203,0.0,1.1,73,-99.99,,,-99.99,WSDL version 423,2013-01-05 09:23:00,
2013-01-05 03:25:00,30.0,23.4,30.30,SSW,203,0.0,0.0,74,-99.99,,,-99.99,WSDL version 423,2013-01-05 09:25:00,
2013-01-05 03:26:00,29.9,23.5,30.30,SSW,203,0.0,0.0,74,-99.99,,,-99.99,WSDL version 423,2013-01-05 09:26:00,
2013-01-05 03:28:00,29.8,23.3,30.30,SSW,203,0.0,0.0,73,-99.99,,,-99.99,WSDL version 423,2013-01-05 09:28:00,
2013-01-05 03:29:00,29.7,23.2,30.30,SSW,203,0.0,0.0,73,-99.99,,,-99.99,WSDL version 423,2013-01-05 09:29:00,
2013-01-05 03:32:00,29.6,23.0,30.30,SSW,203,0.0,0.0,73,-99.99,,,-99.99,WSDL version 423,2013-01-05 09:32:00,
2013-01-05 03:34:00,29.6,23.0,30.30,SSW,203,0.0,0.0,73,-99.99,,,-99.99,WSDL version 423,2013-01-05 09:34:00,
2013-01-05 03:35:00,29.6,23.0,30.30,SSW,203,0.0,0.0,73,-99.99,,,-99.99,WSDL version 423,2013-01-05 09:35:00,
2013-01-05 03:37:00,29.6,23.1,30.30,SSW,203,0.0,1.6,74,-99.99,,,-99.99,WSDL version 423,2013-01-05 09:37:00,
2013-01-05 03:39:00,29.5,23.1,30.30,SSW,203,1.0,2.2,74,-99.99,,,-99.99,WSDL version 423,2013-01-05 09:39:00,
2013-01-05 03:44:00,29.6,23.2,30.30,SW,225,1.0,2.2,74,-99.99,,,-99.99,WSDL version 423,2013-01-05 09:44:00,
2013-01-05 03:45:00,29.6,23.2,30.30,SW,225,0.8,2.2,74,-99.99,,,-99.99,WSDL version 423,2013-01-05 09:45:00,
2013-01-05 03:49:00,29.6,23.3,30.30,SW,229,0.7,2.2,74,-99.99,,,-99.99,WSDL version 423,2013-01-05 09:49:00,
2013-01-05 03:51:00,29.6,23.3,30.30,SW,233,1.3,2.2,74,-99.99,,,-99.99,WSDL version 423,2013-01-05 09:51:00,
2013-01-05 03:54:00,29.7,23.5,30.30,SW,223,1.3,2.2,75,-99.99,,,-99.99,WSDL version 423,2013-01-05 09:54:00,
2013-01-05 03:55:00,29.7,23.5,30.30,SW,233,1.3,2.2,74,-99.99,,,-99.99,WSDL version 423,2013-01-05 09:55:00,
2013-01-05 03:56:00,29.7,23.5,30.30,WSW,248,1.1,2.2,74,-99.99,,,-99.99,WSDL version 423,2013-01-05 09:56:00,
2013-01-05 04:00:00,29.7,23.3,30.30,SW,225,0.3,2.2,74,-99.99,,,-99.99,WSDL version 423,2013-01-05 10:00:00,
2013-01-05 04:02:00,29.6,23.3,30.30,SW,225,0.0,1.6,74,-99.99,,,-99.99,WSDL version 423,2013-01-05 10:02:00,
2013-01-05 04:03:00,29.6,23.3,30.30,SW,225,0.0,1.6,74,-99.99,,,-99.99,WSDL version 423,2013-01-05 10:03:00,
2013-01-05 04:07:00,29.6,23.3,30.30,SW,225,0.0,1.6,74,-99.99,,,-99.99,WSDL version 423,2013-01-05 10:07:00,
2013-01-05 04:08:00,29.6,23.3,30.30,SW,225,0.0,1.1,74,-99.99,,,-99.99,WSDL version 423,2013-01-05 10:08:00,
2013-01-05 04:09:00,29.6,23.2,30.30,SW,225,0.0,1.1,74,-99.99,,,-99.99,WSDL version 423,2013-01-05 10:09:00,
2013-01-05 04:14:00,29.5,23.2,30.30,SSW,203,1.0,2.0,75,-99.99,,,-99.99,WSDL version 423,2013-01-05 10:14:00,
2013-01-05 04:15:00,29.5,23.3,30.30,SSW,203,0.7,2.0,75,-99.99,,,-99.99,WSDL version 423,2013-01-05 10:15:00,
2013-01-05 04:18:00,29.6,23.5,30.30,SSW,205,0.0,2.0,75,-99.99,,,-99.99,WSDL version 423,2013-01-05 10:18:00,
2013-01-05 04:21:00,29.6,23.5,30.30,SW,233,1.0,1.6,75,-99.99,,,-99.99,WSDL version 423,2013-01-05 10:21:00,
2013-01-05 04:23:00,29.7,23.6,30.30,SSW,203,1.3,1.6,75,-99.99,,,-99.99,WSDL version 423,2013-01-05 10:23:00,
2013-01-05 04:26:00,29.8,23.7,30.30,SSW,203,0.7,1.6,75,-99.99,,,-99.99,WSDL version 423,2013-01-05 10:26:00,
2013-01-05 04:31:00,29.8,23.7,30.30,SW,225,1.4,2.5,75,-99.99,,,-99.99,WSDL version 423,2013-01-05 10:31:00,
2013-01-05 04:32:00,29.7,23.7,30.30,SW,225,0.5,2.5,75,-99.99,,,-99.99,WSDL version 423,2013-01-05 10:32:00,
2013-01-05 04:33:00,29.7,23.6,30.30,SW,225,0.0,2.5,75,-99.99,,,-99.99,WSDL version 423,2013-01-05 10:33:00,
2013-01-05 04:37:00,29.6,23.5,30.30,West,270,1.2,2.5,75,-99.99,,,-99.99,WSDL version 423,2013-01-05 10:37:00,
2013-01-05 04:38:00,29.7,23.6,30.30,West,270,1.0,2.5,75,-99.99,,,-99.99,WSDL version 423,2013-01-05 10:38:00,
2013-01-05 04:43:00,29.8,23.8,30.30,SW,215,0.9,2.2,76,-99.99,,,-99.99,WSDL version 423,2013-01-05 10:43:00,
2013-01-05 04:46:00,29.9,24.0,30.30,WSW,248,0.2,2.0,76,-99.99,,,-99.99,WSDL version 423,2013-01-05 10:46:00,
2013-01-05 04:48:00,30.0,24.2,30.30,WSW,248,0.0,2.0,76,-99.99,,,-99.99,WSDL version 423,2013-01-05 10:48:00,
2013-01-05 04:53:00,30.0,24.2,30.30,WSW,248,0.0,1.1,76,-99.99,,,-99.99,WSDL version 423,2013-01-05 10:53:00,
2013-01-05 04:54:00,30.0,24.2,30.30,WSW,248,0.0,0.0,76,-99.99,,,-99.99,WSDL version 423,2013-01-05 10:54:00,
2013-01-05 04:58:00,30.0,24.2,30.27,WSW,248,0.4,1.1,76,-99.99,,,-99.99,WSDL version 423,2013-01-05 10:58:00,
2013-01-05 04:59:00,30.0,24.2,30.27,WSW,248,0.2,1.1,76,-99.99,,,-99.99,WSDL version 423,2013-01-05 10:59:00,
2013-01-05 05:00:00,30.0,24.2,30.27,WSW,248,0.0,1.1,76,-99.99,,,-99.99,WSDL version 423,2013-01-05 11:00:00,
2013-01-05 05:05:00,30.2,24.3,30.27,WSW,248,0.0,1.1,76,-99.99,,,-99.99,WSDL version 423,2013-01-05 11:05:00,
2013-01-05 05:06:00,30.2,24.3,30.27,WSW,248,0.0,1.1,76,-99.99,,,-99.99,WSDL version 423,2013-01-05 11:06:00,
2013-01-05 05:07:00,30.2,24.3,30.27,WSW,248,0.0,0.9,76,-99.99,,,-99.99,WSDL version 423,2013-01-05 11:07:00,
2013-01-05 05:12:00,30.3,24.4,30.30,WSW,248,0.0,0.9,76,-99.99,,,-99.99,WSDL version 423,2013-01-05 11:12:00,
2013-01-05 05:13:00,30.3,24.4,30.30,WSW,248,0.0,0.9,76,-99.99,,,-99.99,WSDL version 423,2013-01-05 11:13:00,
2013-01-05 05:14:00,30.3,24.5,30.30,WSW,248,0.0,1.1,76,-99.99,,,-99.99,WSDL version 423,2013-01-05 11:14:00,
2013-01-05 05:18:00,30.5,24.7,30.30,WSW,248,0.0,1.1,76,-99.99,,,-99.99,WSDL version 423,2013-01-05 11:18:00,
2013-01-05 05:19:00,30.6,24.8,30.30,WSW,248,0.0,1.1,77,-99.99,,,-99.99,WSDL version 423,2013-01-05 11:19:00,
2013-01-05 05:21:00,30.8,25.0,30.30,WSW,248,0.0,1.1,77,-99.99,,,-99.99,WSDL version 423,2013-01-05 11:21:00,
2013-01-05 05:24:00,30.9,25.1,30.30,WSW,248,0.0,1.1,76,-99.99,,,-99.99,WSDL version 423,2013-01-05 11:24:00,
2013-01-05 05:26:00,31.0,25.2,30.30,WSW,248,0.0,1.1,76,-99.99,,,-99.99,WSDL version 423,2013-01-05 11:26:00,
2013-01-05 05:29:00,31.1,25.3,30.30,WSW,248,0.0,1.1,76,-99.99,,,-99.99,WSDL version 423,2013-01-05 11:29:00,
2013-01-05 05:31:00,31.2,25.3,30.30,WSW,248,0.0,1.1,76,-99.99,,,-99.99,WSDL version 423,2013-01-05 11:31:00,
2013-01-05 05:34:00,31.3,25.5,30.30,WSW,248,0.0,0.0,76,-99.99,,,-99.99,WSDL version 423,2013-01-05 11:34:00,
2013-01-05 05:37:00,31.5,25.6,30.30,WSW,248,0.0,0.0,76,-99.99,,,-99.99,WSDL version 423,2013-01-05 11:37:00,
2013-01-05 05:38:00,31.5,25.6,30.30,WSW,248,0.0,0.0,76,-99.99,,,-99.99,WSDL version 423,2013-01-05 11:38:00,
2013-01-05 05:40:00,31.6,25.7,30.30,WSW,242,0.0,1.1,76,-99.99,,,-99.99,WSDL version 423,2013-01-05 11:40:00,
2013-01-05 05:43:00,31.6,25.7,30.27,SW,225,1.1,1.3,76,-99.99,,,-99.99,WSDL version 423,2013-01-05 11:43:00,
2013-01-05 05:45:00,31.5,25.6,30.27,SSW,206,0.6,1.6,76,-99.99,,,-99.99,WSDL version 423,2013-01-05 11:45:00,
2013-01-05 05:48:00,31.3,25.4,30.27,SSE,158,1.3,2.0,76,-99.99,,,-99.99,WSDL version 423,2013-01-05 11:48:00,
2013-01-05 05:49:00,31.3,25.4,30.27,SSE,158,1.0,2.0,76,-99.99,,,-99.99,WSDL version 423,2013-01-05 11:49:00,
2013-01-05 05:51:00,31.3,25.4,30.27,SSE,164,1.0,2.0,76,-99.99,,,-99.99,WSDL version 423,2013-01-05 11:51:00,
2013-01-05 05:55:00,31.3,25.5,30.27,South,180,0.0,2.0,77,-99.99,,,-99.99,WSDL version 423,2013-01-05 11:55:00,
2013-01-05 05:56:00,31.3,25.5,30.27,South,180,0.0,2.0,77,-99.99,,,-99.99,WSDL version 423,2013-01-05 11:56:00,
2013-01-05 05:57:00,31.3,25.5,30.27,South,180,0.0,1.6,76,-99.99,,,-99.99,WSDL version 423,2013-01-05 11:57:00,
2013-01-05 06:00:00,31.3,25.6,30.27,SSW,203,0.0,1.6,77,-99.99,,,-99.99,WSDL version 423,2013-01-05 12:00:00,
2013-01-05 06:01:00,31.4,25.6,30.27,SSW,203,0.2,1.6,77,-99.99,,,-99.99,WSDL version 423,2013-01-05 12:01:00,
2013-01-05 06:05:00,31.6,26.0,30.27,SW,217,1.1,3.4,77,-99.99,,,-99.99,WSDL version 423,2013-01-05 12:05:00,
2013-01-05 06:06:00,31.6,26.0,30.27,SSW,200,1.8,3.4,77,-99.99,,,-99.99,WSDL version 423,2013-01-05 12:06:00,
2013-01-05 06:07:00,31.7,26.1,30.27,SSW,205,1.5,3.4,77,-99.99,,,-99.99,WSDL version 423,2013-01-05 12:07:00,
2013-01-05 06:11:00,31.9,26.2,30.27,SW,225,0.2,3.4,77,-99.99,,,-99.99,WSDL version 423,2013-01-05 12:11:00,
2013-01-05 06:12:00,31.9,26.2,30.30,SW,225,0.3,3.4,77,-99.99,,,-99.99,WSDL version 423,2013-01-05 12:12:00,
2013-01-05 06:17:00,31.7,26.1,30.30,South,186,1.1,2.2,77,-99.99,,,-99.99,WSDL version 423,2013-01-05 12:17:00,
2013-01-05 06:18:00,31.7,26.1,30.30,SSW,196,1.1,2.7,77,-99.99,,,-99.99,WSDL version 423,2013-01-05 12:18:00,
2013-01-05 06:19:00,31.7,26.1,30.30,SSW,205,1.4,2.7,77,-99.99,,,-99.99,WSDL version 423,2013-01-05 12:19:00,
2013-01-05 06:23:00,31.9,26.2,30.30,SSW,203,1.0,2.7,77,-99.99,,,-99.99,WSDL version 423,2013-01-05 12:23:00,
2013-01-05 06:27:00,32.0,26.3,30.30,SSW,203,0.8,2.7,77,-99.99,,,-99.99,WSDL version 423,2013-01-05 12:27:00,
2013-01-05 06:29:00,32.0,26.3,30.30,SSW,203,1.1,2.5,77,-99.99,,,-99.99,WSDL version 423,2013-01-05 12:29:00,
2013-01-05 06:30:00,32.0,26.3,30.30,SSW,199,1.0,2.2,77,-99.99,,,-99.99,WSDL version 423,2013-01-05 12:30:00,
2013-01-05 06:35:00,32.2,26.1,30.30,SSW,200,0.4,2.2,78,-99.99,,,-99.99,WSDL version 423,2013-01-05 12:35:00,
2013-01-05 06:36:00,32.3,26.2,30.30,SSW,211,0.7,2.2,78,-99.99,,,-99.99,WSDL version 423,2013-01-05 12:36:00,
2013-01-05 06:38:00,32.3,26.2,30.30,SSE,165,0.9,2.2,78,-99.99,,,-99.99,WSDL version 423,2013-01-05 12:38:00,
2013-01-05 06:40:00,32.4,26.3,30.30,SSW,203,0.2,2.0,78,-99.99,,,-99.99,WSDL version 423,2013-01-05 12:40:00,
2013-01-05 06:42:00,32.5,26.4,30.30,SSW,205,1.5,2.5,78,-99.99,,,-99.99,WSDL version 423,2013-01-05 12:42:00,
2013-01-05 06:46:00,32.7,26.6,30.30,SSW,203,0.9,2.5,78,-99.99,,,-99.99,WSDL version 423,2013-01-05 12:46:00,
2013-01-05 06:47:00,32.7,26.6,30.30,SSW,197,0.9,2.5,78,-99.99,,,-99.99,WSDL version 423,2013-01-05 12:47:00,
2013-01-05 06:48:00,32.7,26.6,30.30,SSW,194,0.9,2.5,78,-99.99,,,-99.99,WSDL version 423,2013-01-05 12:48:00,
2013-01-05 06:51:00,32.7,26.6,30.30,SW,225,0.3,2.2,77,-99.99,,,-99.99,WSDL version 423,2013-01-05 12:51:00,
2013-01-05 06:53:00,32.8,26.5,30.30,SW,225,0.2,2.0,77,-99.99,,,-99.99,WSDL version 423,2013-01-05 12:53:00,
2013-01-05 06:54:00,32.8,26.5,30.30,SW,230,0.8,2.0,77,-99.99,,,-99.99,WSDL version 423,2013-01-05 12:54:00,
2013-01-05 06:59:00,33.1,26.7,30.30,SW,225,0.2,2.9,77,-99.99,,,-99.99,WSDL version 423,2013-01-05 12:59:00,
2013-01-05 07:00:00,33.2,26.7,30.30,SW,225,0.2,2.9,77,-99.99,,,-99.99,WSDL version 423,2013-01-05 13:00:00,
2013-01-05 07:03:00,33.3,26.9,30.30,SW,225,1.5,3.1,77,-99.99,,,-99.99,WSDL version 423,2013-01-05 13:03:00,
2013-01-05 07:04:00,33.4,27.0,30.30,SW,233,1.5,3.1,77,-99.99,,,-99.99,WSDL version 423,2013-01-05 13:04:00,
2013-01-05 07:05:00,33.5,27.1,30.30,SW,234,1.5,3.1,77,-99.99,,,-99.99,WSDL version 423,2013-01-05 13:05:00,
2013-01-05 07:09:00,33.6,27.2,30.30,SW,225,2.1,3.6,77,-99.99,,,-99.99,WSDL version 423,2013-01-05 13:09:00,
2013-01-05 07:11:00,33.7,27.2,30.30,SW,235,1.8,3.6,77,-99.99,,,-99.99,WSDL version 423,2013-01-05 13:11:00,
2013-01-05 07:16:00,33.9,27.5,30.30,SW,233,1.1,3.6,77,-99.99,,,-99.99,WSDL version 423,2013-01-05 13:16:00,
2013-01-05 07:17:00,34.0,27.5,30.30,WSW,238,0.6,3.6,77,-99.99,,,-99.99,WSDL version 423,2013-01-05 13:17:00,
2013-01-05 07:20:00,34.0,27.5,30.30,SSW,209,1.2,2.5,76,-99.99,,,-99.99,WSDL version 423,2013-01-05 13:20:00,
2013-01-05 07:22:00,34.0,27.4,30.30,SW,222,1.3,2.5,76,-99.99,,,-99.99,WSDL version 423,2013-01-05 13:22:00,
2013-01-05 07:24:00,34.1,27.4,30.30,SW,219,1.1,2.5,76,-99.99,,,-99.99,WSDL version 423,2013-01-05 13:24:00,
2013-01-05 07:28:00,34.1,27.4,30.30,WSW,248,0.0,2.5,76,-99.99,,,-99.99,WSDL version 423,2013-01-05 13:28:00,
2013-01-05 07:30:00,34.2,27.5,30.30,WSW,240,0.0,2.5,76,-99.99,,,-99.99,WSDL version 423,2013-01-05 13:30:00,
2013-01-05 07:31:00,34.3,27.6,30.30,SSW,210,0.0,2.0,76,-99.99,,,-99.99,WSDL version 423,2013-01-05 13:31:00,
2013-01-05 07:36:00,34.5,27.8,30.30,SSW,203,0.0,1.1,76,-99.99,,,-99.99,WSDL version 423,2013-01-05 13:36:00,
2013-01-05 07:37:00,34.5,27.8,30.30,SSW,212,0.2,2.0,76,-99.99,,,-99.99,WSDL version 423,2013-01-05 13:37:00,
2013-01-05 07:41:00,34.7,27.8,30.30,SSW,199,1.4,3.1,75,-99.99,,,-99.99,WSDL version 423,2013-01-05 13:41:00,
2013-01-05 07:42:00,34.7,27.7,30.30,SSW,208,1.1,3.1,75,-99.99,,,-99.99,WSDL version 423,2013-01-05 13:42:00,
2013-01-05 07:43:00,34.7,27.7,30.30,South,180,1.0,3.1,76,-99.99,,,-99.99,WSDL version 423,2013-01-05 13:43:00,
2013-01-05 07:47:00,34.7,27.7,30.30,SSE,158,1.1,3.1,75,-99.99,,,-99.99,WSDL version 423,2013-01-05 13:47:00,
2013-01-05 07:48:00,34.7,27.6,30.30,South,174,0.7,3.1,75,-99.99,,,-99.99,WSDL version 423,2013-01-05 13:48:00,
2013-01-05 07:52:00,34.7,27.6,30.30,SSW,206,1.2,2.2,75,-99.99,,,-99.99,WSDL version 423,2013-01-05 13:52:00,
2013-01-05 07:53:00,34.7,27.6,30.30,South,188,1.3,2.2,75,-99.99,,,-99.99,WSDL version 423,2013-01-05 13:53:00,
2013-01-05 07:54:00,34.7,27.6,30.30,SW,215,1.3,2.2,75,-99.99,,,-99.99,WSDL version 423,2013-01-05 13:54:00,
2013-01-05 07:57:00,34.8,27.8,30.30,SW,228,1.3,2.2,75,-99.99,,,-99.99,WSDL version 423,2013-01-05 13:57:00,
2013-01-05 08:00:00,35.3,28.2,30.30,WSW,255,0.6,2.2,75,-99.99,,,-99.99,WSDL version 423,2013-01-05 14:00:00,
2013-01-05 08:02:00,35.4,28.4,30.30,SW,234,1.0,2.2,76,-99.99,,,-99.99,WSDL version 423,2013-01-05 14:02:00,
2013-01-05 08:05:00,35.9,29.0,30.30,West,260,1.9,3.6,75,-99.99,,,-99.99,WSDL version 423,2013-01-05 14:05:00,
2013-01-05 08:08:00,36.5,29.6,30.30,West,280,2.3,3.6,76,-99.99,,,-99.99,WSDL version 423,2013-01-05 14:08:00,
2013-01-05 08:11:00,36.9,30.0,30.30,West,266,2.5,3.6,75,-99.99,,,-99.99,WSDL version 423,2013-01-05 14:11:00,
2013-01-05 08:14:00,37.5,30.4,30.33,WSW,239,1.8,3.4,75,-99.99,,,-99.99,WSDL version 423,2013-01-05 14:14:00,
2013-01-05 08:15:00,37.7,30.5,30.33,SW,233,1.9,3.4,74,-99.99,,,-99.99,WSDL version 423,2013-01-05 14:15:00,
2013-01-05 08:16:00,37.8,30.6,30.33,WSW,248,2.1,3.4,74,-99.99,,,-99.99,WSDL version 423,2013-01-05 14:16:00,
2013-01-05 08:21:00,38.6,30.9,30.33,SW,214,2.0,4.9,73,-99.99,,,-99.99,WSDL version 423,2013-01-05 14:21:00,
2013-01-05 08:22:00,39.0,31.1,30.33,SSW,197,1.5,4.9,72,-99.99,,,-99.99,WSDL version 423,2013-01-05 14:22:00,
2013-01-05 08:24:00,39.4,31.3,30.33,SSW,205,1.3,4.9,72,-99.99,,,-99.99,WSDL version 423,2013-01-05 14:24:00,
2013-01-05 08:28:00,40.1,30.9,30.30,SSW,206,1.4,3.6,67,-99.99,,,-99.99,WSDL version 423,2013-01-05 14:28:00,
2013-01-05 08:31:00,40.6,30.4,30.30,SW,233,1.5,3.6,65,-99.99,,,-99.99,WSDL version 423,2013-01-05 14:31:00,
2013-01-05 08:34:00,41.2,30.2,30.30,SW,221,1.6,3.6,64,-99.99,,,-99.99,WSDL version 423,2013-01-05 14:34:00,
2013-01-05 08:35:00,41.3,30.3,30.30,SW,214,2.0,3.6,65,-99.99,,,-99.99,WSDL version 423,2013-01-05 14:35:00,
2013-01-05 08:36:00,41.5,30.5,30.30,WSW,250,1.9,3.6,65,-99.99,,,-99.99,WSDL version 423,2013-01-05 14:36:00,
2013-01-05 08:41:00,41.8,30.2,30.30,SSW,203,1.8,3.6,62,-99.99,,,-99.99,WSDL version 423,2013-01-05 14:41:00,
2013-01-05 08:42:00,41.7,29.9,30.30,SSW,200,1.8,3.6,62,-99.99,,,-99.99,WSDL version 423,2013-01-05 14:42:00,
2013-01-05 08:47:00,41.3,29.0,30.30,South,183,1.7,3.1,62,-99.99,,,-99.99,WSDL version 423,2013-01-05 14:47:00,
2013-01-05 08:48:00,41.3,28.9,30.30,South,169,2.1,3.1,61,-99.99,,,-99.99,WSDL version 423,2013-01-05 14:48:00,
2013-01-05 08:49:00,41.3,28.8,30.30,SSW,203,1.8,3.8,61,-99.99,,,-99.99,WSDL version 423,2013-01-05 14:49:00,
2013-01-05 08:52:00,41.3,28.7,30.30,West,265,2.1,5.8,60,-99.99,,,-99.99,WSDL version 423,2013-01-05 14:52:00,
2013-01-05 08:53:00,41.4,28.7,30.30,SSW,210,2.2,5.8,60,-99.99,,,-99.99,WSDL version 423,2013-01-05 14:53:00,
2013-01-05 08:55:00,41.5,28.6,30.30,SE,145,2.2,5.8,60,-99.99,,,-99.99,WSDL version 423,2013-01-05 14:55:00,
2013-01-05 08:57:00,41.8,28.8,30.30,SW,222,1.1,5.8,60,-99.99,,,-99.99,WSDL version 423,2013-01-05 14:57:00,
2013-01-05 09:01:00,42.5,29.4,30.30,NW,304,2.3,5.8,59,-99.99,,,-99.99,WSDL version 423,2013-01-05 15:01:00,
2013-01-05 09:02:00,42.6,29.4,30.30,SSW,206,2.8,4.0,59,-99.99,,,-99.99,WSDL version 423,2013-01-05 15:02:00,
2013-01-05 09:06:00,42.9,29.4,30.30,SW,217,2.1,4.9,58,-99.99,,,-99.99,WSDL version 423,2013-01-05 15:06:00,
2013-01-05 09:07:00,42.8,29.0,30.30,West,260,2.6,4.9,57,-99.99,,,-99.99,WSDL version 423,2013-01-05 15:07:00,
2013-01-05 09:08:00,42.7,28.8,30.30,SSW,203,2.8,4.9,57,-99.99,,,-99.99,WSDL version 423,2013-01-05 15:08:00,
2013-01-05 09:13:00,42.2,28.1,30.30,SW,221,3.1,4.9,57,-99.99,,,-99.99,WSDL version 423,2013-01-05 15:13:00,
2013-01-05 09:17:00,41.9,27.8,30.30,SSW,205,1.8,4.0,57,-99.99,,,-99.99,WSDL version 423,2013-01-05 15:17:00,
2013-01-05 09:19:00,41.8,27.7,30.30,NW,323,2.0,4.0,57,-99.99,,,-99.99,WSDL version 423,2013-01-05 15:19:00,
2013-01-05 09:23:00,41.8,27.8,30.30,NW,318,0.2,3.4,58,-99.99,,,-99.99,WSDL version 423,2013-01-05 15:23:00,
2013-01-05 09:24:00,41.8,27.9,30.30,SW,231,1.1,3.4,58,-99.99,,,-99.99,WSDL version 423,2013-01-05 15:24:00,
2013-01-05 09:27:00,41.8,28.1,30.30,WSW,248,1.4,3.6,58,-99.99,,,-99.99,WSDL version 423,2013-01-05 15:27:00,
2013-01-05 09:28:00,41.8,28.1,30.30,SW,222,1.8,3.6,58,-99.99,,,-99.99,WSDL version 423,2013-01-05 15:28:00,
2013-01-05 09:29:00,41.8,28.1,30.30,SW,231,1.7,3.6,58,-99.99,,,-99.99,WSDL version 423,2013-01-05 15:29:00,
2013-01-05 09:33:00,42.0,28.4,30.30,South,177,1.1,3.6,58,-99.99,,,-99.99,WSDL version 423,2013-01-05 15:33:00,
2013-01-05 09:35:00,42.1,28.4,30.30,SSW,194,0.5,3.6,58,-99.99,,,-99.99,WSDL version 423,2013-01-05 15:35:00,
2013-01-05 09:37:00,42.1,28.3,30.30,SW,225,1.3,2.9,58,-99.99,,,-99.99,WSDL version 423,2013-01-05 15:37:00,
2013-01-05 09:39:00,42.2,28.5,30.30,SW,235,1.8,2.9,59,-99.99,,,-99.99,WSDL version 423,2013-01-05 15:39:00,
2013-01-05 09:40:00,42.2,28.6,30.30,SW,222,2.0,2.9,59,-99.99,,,-99.99,WSDL version 423,2013-01-05 15:40:00,
2013-01-05 09:44:00,42.5,29.1,30.30,West,280,2.8,4.7,59,-99.99,,,-99.99,WSDL version 423,2013-01-05 15:44:00,
2013-01-05 09:46:00,42.5,28.8,30.30,WSW,239,2.4,4.9,57,-99.99,,,-99.99,WSDL version 423,2013-01-05 15:46:00,
2013-01-05 09:48:00,42.5,28.6,30.30,SW,225,1.5,4.9,57,-99.99,,,-99.99,WSDL version 423,2013-01-05 15:48:00,
2013-01-05 09:49:00,42.5,28.4,30.30,SW,225,1.2,4.9,57,-99.99,,,-99.99,WSDL version 423,2013-01-05 15:49:00,
2013-01-05 09:51:00,42.6,28.6,30.30,SSW,212,1.2,4.9,58,-99.99,,,-99.99,WSDL version 423,2013-01-05 15:51:00,
2013-01-05 09:53:00,42.8,29.0,30.30,West,259,2.0,6.0,58,-99.99,,,-99.99,WSDL version 423,2013-01-05 15:53:00,
2013-01-05 09:55:00,42.9,29.2,30.30,West,273,2.5,6.0,58,-99.99,,,-99.99,WSDL version 423,2013-01-05 15:55:00,
2013-01-05 09:56:00,43.0,29.2,30.30,West,268,2.5,6.0,58,-99.99,,,-99.99,WSDL version 423,2013-01-05 15:56:00,
2013-01-05 09:58:00,43.0,29.1,30.30,SSW,203,1.1,6.0,57,-99.99,,,-99.99,WSDL version 423,2013-01-05 15:58:00,
2013-01-05 10:00:00,43.1,29.0,30.30,SW,223,1.9,6.0,57,-99.99,,,-99.99,WSDL version 423,2013-01-05 16:00:00,
2013-01-05 10:03:00,43.2,29.0,30.30,SW,214,1.7,5.4,57,-99.99,,,-99.99,WSDL version 423,2013-01-05 16:03:00,
2013-01-05 10:05:00,43.2,29.0,30.30,SSW,196,1.4,3.6,57,-99.99,,,-99.99,WSDL version 423,2013-01-05 16:05:00,
2013-01-05 10:07:00,43.4,29.0,30.30,WSW,251,2.0,3.6,56,-99.99,,,-99.99,WSDL version 423,2013-01-05 16:07:00,
2013-01-05 10:10:00,43.5,29.0,30.30,SW,221,1.5,3.6,57,-99.99,,,-99.99,WSDL version 423,2013-01-05 16:10:00,
2013-01-05 10:12:00,43.6,29.1,30.30,SSW,203,1.7,2.7,56,-99.99,,,-99.99,WSDL version 423,2013-01-05 16:12:00,
2013-01-05 10:15:00,43.8,29.2,30.30,SW,236,3.0,3.0,56,-99.99,,,-99.99,WSDL version 423,2013-01-05 16:15:00,
2013-01-05 10:17:00,43.9,29.2,30.30,North,0,0.0,2.7,56,-99.99,,,-99.99,WSDL version 423,2013-01-05 16:17:00,
2013-01-05 10:18:00,43.9,29.2,30.30,SW,225,2.0,2.7,56,-99.99,,,-99.99,WSDL version 423,2013-01-05 16:18:00,
2013-01-05 10:22:00,44.0,29.1,30.30,SSW,203,1.7,3.1,55,-99.99,,,-99.99,WSDL version 423,2013-01-05 16:22:00,
2013-01-05 10:23:00,44.1,29.1,30.30,WSW,254,1.5,3.1,55,-99.99,,,-99.99,WSDL version 423,2013-01-05 16:23:00,
2013-01-05 10:24:00,44.1,29.1,30.30,WSW,241,1.6,3.1,56,-99.99,,,-99.99,WSDL version 423,2013-01-05 16:24:00,
2013-01-05 10:25:00,44.1,29.2,30.30,SSE,167,1.5,3.1,56,-99.99,,,-99.99,WSDL version 423,2013-01-05 16:25:00,
2013-01-05 10:27:00,44.3,29.5,30.27,South,185,1.4,3.1,56,-99.99,,,-99.99,WSDL version 423,2013-01-05 16:27:00,
2013-01-05 10:30:00,44.4,29.5,30.27,South,177,2.2,3.1,55,-99.99,,,-99.99,WSDL version 423,2013-01-05 16:30:00,
2013-01-05 10:32:00,44.4,29.2,30.27,SW,233,2.5,3.1,54,-99.99,,,-99.99,WSDL version 423,2013-01-05 16:32:00,
2013-01-05 10:34:00,44.5,29.1,30.27,SW,234,2.2,3.1,54,-99.99,,,-99.99,WSDL version 423,2013-01-05 16:34:00,
2013-01-05 10:36:00,44.5,29.0,30.27,SSW,210,2.2,3.1,54,-99.99,,,-99.99,WSDL version 423,2013-01-05 16:36:00,
2013-01-05 10:38:00,44.6,29.1,30.27,SSW,206,1.9,3.8,54,-99.99,,,-99.99,WSDL version 423,2013-01-05 16:38:00,
2013-01-05 10:42:00,44.7,29.1,30.27,SE,135,2.0,3.8,54,-99.99,,,-99.99,WSDL version 423,2013-01-05 16:42:00,
2013-01-05 10:44:00,44.8,29.2,30.27,SSW,199,2.5,3.8,54,-99.99,,,-99.99,WSDL version 423,2013-01-05 16:44:00,
2013-01-05 10:47:00,45.0,29.5,30.27,SW,222,2.3,3.8,54,-99.99,,,-99.99,WSDL version 423,2013-01-05 16:47:00,
2013-01-05 10:49:00,45.0,29.5,30.27,SSW,200,1.8,3.6,54,-99.99,,,-99.99,WSDL version 423,2013-01-05 16:49:00,
2013-01-05 10:51:00,45.2,29.4,30.27,SW,222,2.0,3.6,53,-99.99,,,-99.99,WSDL version 423,2013-01-05 16:51:00,
2013-01-05 10:56:00,45.3,29.0,30.27,SSW,211,2.4,4.9,52,-99.99,,,-99.99,WSDL version 423,2013-01-05 16:56:00,
2013-01-05 10:57:00,45.3,28.9,30.27,South,186,2.3,4.9,52,-99.99,,,-99.99,WSDL version 423,2013-01-05 16:57:00,
2013-01-05 11:00:00,45.3,28.9,30.27,ENE,60,2.1,4.9,52,-99.99,,,-99.99,WSDL version 423,2013-01-05 17:00:00,
2013-01-05 11:01:00,45.3,28.9,30.27,SSW,212,1.4,4.9,52,-99.99,,,-99.99,WSDL version 423,2013-01-05 17:01:00,
2013-01-05 11:02:00,45.3,28.9,30.27,South,183,2.0,4.9,52,-99.99,,,-99.99,WSDL version 423,2013-01-05 17:02:00,
2013-01-05 11:06:00,45.4,28.6,30.27,SW,233,2.1,4.3,51,-99.99,,,-99.99,WSDL version 423,2013-01-05 17:06:00,
2013-01-05 11:07:00,45.4,28.5,30.27,WSW,250,2.5,4.7,51,-99.99,,,-99.99,WSDL version 423,2013-01-05 17:07:00,
2013-01-05 11:08:00,45.4,28.3,30.27,SW,219,2.9,4.7,50,-99.99,,,-99.99,WSDL version 423,2013-01-05 17:08:00,
2013-01-05 11:12:00,45.4,28.2,30.27,SW,225,1.6,4.7,52,-99.99,,,-99.99,WSDL version 423,2013-01-05 17:12:00,
2013-01-05 11:13:00,45.5,28.5,30.27,SW,225,1.7,4.7,52,-99.99,,,-99.99,WSDL version 423,2013-01-05 17:13:00,
2013-01-05 11:16:00,45.7,29.0,30.27,SW,236,2.1,4.7,52,-99.99,,,-99.99,WSDL version 423,2013-01-05 17:16:00,
2013-01-05 11:18:00,45.8,29.0,30.27,WSW,248,2.6,4.7,51,-99.99,,,-99.99,WSDL version 423,2013-01-05 17:18:00,
2013-01-05 11:20:00,45.8,29.0,30.27,East,79,1.5,4.7,52,-99.99,,,-99.99,WSDL version 423,2013-01-05 17:20:00,
2013-01-05 11:21:00,45.8,28.9,30.27,NW,311,1.2,4.7,52,-99.99,,,-99.99,WSDL version 423,2013-01-05 17:21:00,
2013-01-05 11:25:00,46.2,29.2,30.27,South,180,1.1,4.0,51,-99.99,,,-99.99,WSDL version 423,2013-01-05 17:25:00,
2013-01-05 11:27:00,46.2,29.0,30.27,West,259,2.4,4.3,51,-99.99,,,-99.99,WSDL version 423,2013-01-05 17:27:00,
2013-01-05 11:30:00,46.2,28.6,30.27,West,270,3.3,4.7,50,-99.99,,,-99.99,WSDL version 423,2013-01-05 17:30:00,
2013-01-05 11:32:00,46.2,28.4,30.27,WSW,244,3.4,4.7,49,-99.99,,,-99.99,WSDL version 423,2013-01-05 17:32:00,
2013-01-05 11:33:00,46.2,28.2,30.27,SSW,199,3.3,4.7,48,-99.99,,,-99.99,WSDL version 423,2013-01-05 17:33:00,
2013-01-05 11:35:00,46.2,28.1,30.27,West,259,2.6,4.7,49,-99.99,,,-99.99,WSDL version 423,2013-01-05 17:35:00,
2013-01-05 11:38:00,46.2,28.0,30.27,WNW,289,1.4,4.7,49,-99.99,,,-99.99,WSDL version 423,2013-01-05 17:38:00,
2013-01-05 11:39:00,46.2,27.8,30.27,SW,236,2.1,4.7,48,-99.99,,,-99.99,WSDL version 423,2013-01-05 17:39:00,
2013-01-05 11:41:00,46.2,27.7,30.27,West,259,3.0,5.4,48,-99.99,,,-99.99,WSDL version 423,2013-01-05 17:41:00,
2013-01-05 11:56:00,47.5,28.7,30.24,NW,304,2.5,2.9,48,0.00,,,0.00,WSDL version 423,2013-01-05 17:56:00,
2013-01-05 12:00:00,47.6,29.0,30.24,WNW,289,2.0,3.4,49,0.00,,,0.00,WSDL version 423,2013-01-05 18:00:00,
2013-01-05 12:01:00,47.6,29.1,30.24,WNW,285,2.2,3.4,49,0.00,,,0.00,WSDL version 423,2013-01-05 18:01:00,
2013-01-05 12:03:00,47.7,29.3,30.24,WSW,248,2.4,3.4,48,0.00,,,0.00,WSDL version 423,2013-01-05 18:03:00,
2013-01-05 12:05:00,47.8,29.1,30.24,West,275,2.4,3.4,48,0.00,,,0.00,WSDL version 423,2013-01-05 18:05:00,
2013-01-05 12:07:00,47.8,28.8,30.24,WNW,301,3.0,3.6,47,0.00,,,0.00,WSDL version 423,2013-01-05 18:07:00,
2013-01-05 12:12:00,48.0,28.9,30.24,WSW,248,2.8,4.0,47,0.00,,,0.00,WSDL version 423,2013-01-05 18:12:00,
2013-01-05 12:14:00,48.1,28.8,30.24,WSW,239,1.7,5.6,47,0.00,,,0.00,WSDL version 423,2013-01-05 18:14:00,
2013-01-05 12:18:00,48.0,28.5,30.24,WSW,253,2.7,5.6,46,0.00,,,0.00,WSDL version 423,2013-01-05 18:18:00,
2013-01-05 12:20:00,48.0,28.1,30.24,West,280,1.7,5.6,46,0.00,,,0.00,WSDL version 423,2013-01-05 18:20:00,
2013-01-05 12:21:00,48.0,28.1,30.24,West,278,2.7,5.6,46,0.00,,,0.00,WSDL version 423,2013-01-05 18:21:00,
2013-01-05 12:25:00,48.0,28.1,30.24,West,274,1.7,5.4,46,0.00,,,0.00,WSDL version 423,2013-01-05 18:25:00,
2013-01-05 12:27:00,48.0,28.3,30.24,West,281,2.8,5.4,46,0.00,,,0.00,WSDL version 423,2013-01-05 18:27:00,
2013-01-05 12:28:00,48.1,28.3,30.21,WNW,293,2.1,5.4,46,0.00,,,0.00,WSDL version 423,2013-01-05 18:28:00,
2013-01-05 12:30:00,48.1,28.3,30.21,West,275,2.5,5.8,46,0.00,,,0.00,WSDL version 423,2013-01-05 18:30:00,
2013-01-05 12:32:00,48.2,28.4,30.21,SW,233,2.5,5.8,46,0.00,,,0.00,WSDL version 423,2013-01-05 18:32:00,
2013-01-05 12:37:00,48.0,27.7,30.21,SW,221,2.5,6.3,45,0.00,,,0.00,WSDL version 423,2013-01-05 18:37:00,
2013-01-05 12:38:00,48.0,27.7,30.21,West,264,2.0,6.3,45,0.00,,,0.00,WSDL version 423,2013-01-05 18:38:00,
2013-01-05 12:40:00,48.0,27.7,30.21,West,281,2.6,6.3,45,0.00,,,0.00,WSDL version 423,2013-01-05 18:40:00,
2013-01-05 12:42:00,48.0,27.7,30.21,West,259,3.2,6.3,45,0.00,,,0.00,WSDL version 423,2013-01-05 18:42:00,
2013-01-05 12:47:00,48.0,27.7,30.21,West,266,3.1,4.9,45,0.00,,,0.00,WSDL version 423,2013-01-05 18:47:00,
2013-01-05 12:50:00,48.1,27.8,30.21,West,264,2.4,4.9,45,0.00,,,0.00,WSDL version 423,2013-01-05 18:50:00,
2013-01-05 12:51:00,48.1,27.8,30.21,West,274,1.5,4.9,45,0.00,,,0.00,WSDL version 423,2013-01-05 18:51:00,
2013-01-05 12:52:00,48.1,27.8,30.21,West,270,2.0,4.9,45,0.00,,,0.00,WSDL version 423,2013-01-05 18:52:00,
2013-01-05 12:56:00,48.0,27.7,30.21,SW,230,1.6,4.9,45,0.00,,,0.00,WSDL version 423,2013-01-05 18:56:00,
2013-01-05 12:59:00,48.2,28.2,30.21,West,270,2.2,3.8,46,0.00,,,0.00,WSDL version 423,2013-01-05 18:59:00,
2013-01-05 13:01:00,48.3,28.4,30.21,SSW,210,2.8,4.0,45,0.00,,,0.00,WSDL version 423,2013-01-05 19:01:00,
2013-01-05 13:03:00,48.4,28.3,30.21,SSW,212,1.5,4.0,45,0.00,,,0.00,WSDL version 423,2013-01-05 19:03:00,
2013-01-05 13:06:00,48.5,28.4,30.21,West,264,2.4,4.0,45,0.00,,,0.00,WSDL version 423,2013-01-05 19:06:00,
2013-01-05 13:07:00,48.6,28.4,30.21,SW,225,2.0,4.0,45,0.00,,,0.00,WSDL version 423,2013-01-05 19:07:00,
2013-01-05 13:10:00,49.0,28.6,30.21,WSW,255,2.3,4.0,45,0.00,,,0.00,WSDL version 423,2013-01-05 19:10:00,
2013-01-05 13:11:00,49.0,28.6,30.21,WSW,257,2.3,4.0,44,0.00,,,0.00,WSDL version 423,2013-01-05 19:11:00,
2013-01-05 13:13:00,49.1,28.6,30.21,West,270,2.8,4.7,45,0.00,,,0.00,WSDL version 423,2013-01-05 19:13:00,
2013-01-05 13:16:00,49.1,28.5,30.21,WNW,285,1.7,4.7,44,0.00,,,0.00,WSDL version 423,2013-01-05 19:16:00,
2013-01-05 13:18:00,49.0,28.3,30.21,NW,315,1.7,4.7,45,0.00,,,0.00,WSDL version 423,2013-01-05 19:18:00,
2013-01-05 13:22:00,48.9,28.2,30.21,SW,228,1.5,4.9,44,0.00,,,0.00,WSDL version 423,2013-01-05 19:22:00,
2013-01-05 13:23:00,48.8,28.1,30.21,West,280,2.0,4.9,45,0.00,,,0.00,WSDL version 423,2013-01-05 19:23:00,
2013-01-05 13:26:00,48.7,28.2,30.21,WNW,285,3.6,4.9,45,0.00,,,0.00,WSDL version 423,2013-01-05 19:26:00,
2013-01-05 13:27:00,48.7,28.2,30.21,West,281,3.5,5.4,45,0.00,,,0.00,WSDL version 423,2013-01-05 19:27:00,
2013-01-05 13:29:00,48.7,28.2,30.18,West,259,2.8,5.4,45,0.00,,,0.00,WSDL version 423,2013-01-05 19:29:00,
2013-01-05 13:32:00,48.7,28.1,30.18,WSW,251,2.9,5.4,44,0.00,,,0.00,WSDL version 423,2013-01-05 19:32:00,
2013-01-05 13:33:00,48.6,28.0,30.18,WSW,254,2.3,5.4,44,0.00,,,0.00,WSDL version 423,2013-01-05 19:33:00,
2013-01-05 13:34:00,48.6,27.9,30.18,WSW,257,2.1,5.4,44,0.00,,,0.00,WSDL version 423,2013-01-05 19:34:00,
2013-01-05 13:37:00,48.6,28.0,30.18,West,266,2.5,4.3,45,0.00,,,0.00,WSDL version 423,2013-01-05 19:37:00,
2013-01-05 13:40:00,48.6,28.0,30.18,West,270,2.5,4.3,44,0.00,,,0.00,WSDL version 423,2013-01-05 19:40:00,
2013-01-05 13:42:00,48.7,28.1,30.18,West,270,1.6,4.3,45,0.00,,,0.00,WSDL version 423,2013-01-05 19:42:00,
2013-01-05 13:44:00,48.7,28.2,30.18,SSW,199,1.3,4.3,44,0.00,,,0.00,WSDL version 423,2013-01-05 19:44:00,
2013-01-05 13:45:00,48.7,28.3,30.18,SSW,210,2.1,5.4,45,0.00,,,0.00,WSDL version 423,2013-01-05 19:45:00,
2013-01-05 13:46:00,48.7,28.3,30.18,SW,214,2.9,5.4,45,0.00,,,0.00,WSDL version 423,2013-01-05 19:46:00,
2013-01-05 13:50:00,48.4,27.8,30.18,SSW,199,1.3,5.4,45,0.00,,,0.00,WSDL version 423,2013-01-05 19:50:00,
2013-01-05 13:51:00,48.3,27.8,30.18,SSW,195,2.0,5.4,45,0.00,,,0.00,WSDL version 423,2013-01-05 19:51:00,
2013-01-05 13:56:00,48.4,27.7,30.18,West,278,3.9,7.2,44,0.00,,,0.00,WSDL version 423,2013-01-05 19:56:00,
2013-01-05 13:58:00,48.4,27.6,30.18,West,262,3.4,7.2,44,0.00,,,0.00,WSDL version 423,2013-01-05 19:58:00,
2013-01-05 14:00:00,48.5,27.7,30.18,SW,230,3.1,7.2,44,0.00,,,0.00,WSDL version 423,2013-01-05 20:00:00,
2013-01-05 14:01:00,48.5,27.7,30.18,SW,236,2.3,7.2,44,0.00,,,0.00,WSDL version 423,2013-01-05 20:01:00,
2013-01-05 14:05:00,48.5,27.9,30.18,West,274,2.5,6.0,45,0.00,,,0.00,WSDL version 423,2013-01-05 20:05:00,
2013-01-05 14:06:00,48.5,28.0,30.18,West,270,2.1,6.0,45,0.00,,,0.00,WSDL version 423,2013-01-05 20:06:00,
2013-01-05 14:09:00,48.5,28.0,30.18,SSW,197,2.5,3.6,45,0.00,,,0.00,WSDL version 423,2013-01-05 20:09:00,
2013-01-05 14:10:00,48.6,28.1,30.18,West,276,2.0,7.4,45,0.00,,,0.00,WSDL version 423,2013-01-05 20:10:00,
2013-01-05 14:12:00,48.6,28.0,30.18,WSW,256,3.4,7.4,44,0.00,,,0.00,WSDL version 423,2013-01-05 20:12:00,
2013-01-05 14:15:00,48.6,27.8,30.18,WSW,248,1.9,7.4,44,0.00,,,0.00,WSDL version 423,2013-01-05 20:15:00,
2013-01-05 14:16:00,48.5,27.7,30.18,WSW,248,2.6,7.4,44,0.00,,,0.00,WSDL version 423,2013-01-05 20:16:00,
2013-01-05 14:19:00,48.6,27.8,30.18,SSW,207,2.1,7.4,44,0.00,,,0.00,WSDL version 423,2013-01-05 20:19:00,
2013-01-05 14:20:00,48.6,27.8,30.18,SSW,212,2.1,4.3,44,0.00,,,0.00,WSDL version 423,2013-01-05 20:20:00,
2013-01-05 14:21:00,48.6,27.8,30.18,West,259,3.7,4.9,44,0.00,,,0.00,WSDL version 423,2013-01-05 20:21:00,
2013-01-05 14:25:00,48.3,27.5,30.18,West,263,2.8,7.4,44,0.00,,,0.00,WSDL version 423,2013-01-05 20:25:00,
2013-01-05 14:26:00,48.2,27.5,30.18,SW,218,2.2,7.4,44,0.00,,,0.00,WSDL version 423,2013-01-05 20:26:00,
2013-01-05 14:27:00,48.1,27.4,30.18,SW,217,2.4,7.4,44,0.00,,,0.00,WSDL version 423,2013-01-05 20:27:00,
2013-01-05 14:31:00,48.0,27.3,30.18,WNW,293,1.9,7.4,44,0.00,,,0.00,WSDL version 423,2013-01-05 20:31:00,
2013-01-05 14:32:00,48.0,27.3,30.18,WSW,242,2.1,6.0,44,0.00,,,0.00,WSDL version 423,2013-01-05 20:32:00,
2013-01-05 14:33:00,48.1,27.3,30.18,WSW,244,2.0,5.6,44,0.00,,,0.00,WSDL version 423,2013-01-05 20:33:00,
2013-01-05 14:38:00,48.1,27.4,30.18,WSW,257,2.9,4.0,44,0.00,,,0.00,WSDL version 423,2013-01-05 20:38:00,
2013-01-05 14:39:00,48.2,27.4,30.18,West,264,3.0,4.0,44,0.00,,,0.00,WSDL version 423,2013-01-05 20:39:00,
2013-01-05 14:41:00,48.2,27.4,30.18,West,278,3.5,4.7,44,0.00,,,0.00,WSDL version 423,2013-01-05 20:41:00,
2013-01-05 14:44:00,48.1,27.3,30.18,West,270,2.7,6.3,44,0.00,,,0.00,WSDL version 423,2013-01-05 20:44:00,
2013-01-05 14:46:00,48.0,27.3,30.18,WNW,285,3.2,6.3,44,0.00,,,0.00,WSDL version 423,2013-01-05 20:46:00,
2013-01-05 14:49:00,48.0,27.3,30.18,WNW,296,2.8,6.3,44,0.00,,,0.00,WSDL version 423,2013-01-05 20:49:00,
2013-01-05 14:50:00,48.0,27.3,30.18,WNW,289,3.4,6.3,44,0.00,,,0.00,WSDL version 423,2013-01-05 20:50:00,
2013-01-05 14:52:00,47.9,27.2,30.18,West,266,3.7,7.2,44,0.00,,,0.00,WSDL version 423,2013-01-05 20:52:00,
2013-01-05 14:54:00,47.9,27.1,30.18,West,276,1.8,7.2,44,0.00,,,0.00,WSDL version 423,2013-01-05 20:54:00,
2013-01-05 14:56:00,47.8,27.1,30.18,West,266,3.0,7.6,44,0.00,,,0.00,WSDL version 423,2013-01-05 20:56:00,
2013-01-05 14:58:00,47.7,27.0,30.18,WSW,248,3.7,7.6,44,0.00,,,0.00,WSDL version 423,2013-01-05 20:58:00,
2013-01-05 15:00:00,47.7,27.0,30.18,WSW,239,1.5,7.6,44,0.00,,,0.00,WSDL version 423,2013-01-05 21:00:00,
2013-01-05 15:01:00,47.7,27.0,30.18,WSW,238,0.9,7.6,44,0.00,,,0.00,WSDL version 423,2013-01-05 21:01:00,
2013-01-05 15:05:00,47.6,26.9,30.18,SW,219,2.7,7.6,44,0.00,,,0.00,WSDL version 423,2013-01-05 21:05:00,
2013-01-05 15:06:00,47.6,26.9,30.18,WNW,296,1.7,5.4,44,0.00,,,0.00,WSDL version 423,2013-01-05 21:06:00,
2013-01-05 15:08:00,47.6,26.9,30.18,West,264,1.3,5.4,44,0.00,,,0.00,WSDL version 423,2013-01-05 21:08:00,
2013-01-05 15:12:00,47.5,26.8,30.18,SW,235,2.2,4.0,44,0.00,,,0.00,WSDL version 423,2013-01-05 21:12:00,
2013-01-05 15:13:00,47.5,26.8,30.18,WSW,255,2.2,4.0,44,0.00,,,0.00,WSDL version 423,2013-01-05 21:13:00,
2013-01-05 15:14:00,47.5,26.8,30.18,SW,225,2.1,4.0,44,0.00,,,0.00,WSDL version 423,2013-01-05 21:14:00,
2013-01-05 15:15:00,47.5,26.8,30.18,SW,222,2.4,4.0,44,0.00,,,0.00,WSDL version 423,2013-01-05 21:15:00,
2013-01-05 15:17:00,47.5,26.8,30.18,West,270,1.7,5.6,44,0.00,,,0.00,WSDL version 423,2013-01-05 21:17:00,
2013-01-05 15:19:00,47.6,27.0,30.18,West,261,2.2,5.6,45,0.00,,,0.00,WSDL version 423,2013-01-05 21:19:00,
2013-01-05 15:23:00,47.7,27.5,30.18,West,270,2.6,5.6,45,0.00,,,0.00,WSDL version 423,2013-01-05 21:23:00,
2013-01-05 15:25:00,47.8,27.6,30.18,West,281,2.6,5.6,45,0.00,,,0.00,WSDL version 423,2013-01-05 21:25:00,
2013-01-05 15:26:00,47.8,27.6,30.18,West,262,1.1,5.6,45,0.00,,,0.00,WSDL version 423,2013-01-05 21:26:00,
2013-01-05 15:30:00,47.8,27.6,30.18,West,262,1.7,4.9,45,0.00,,,0.00,WSDL version 423,2013-01-05 21:30:00,
2013-01-05 15:31:00,47.8,27.5,30.18,WSW,242,2.1,4.9,44,0.00,,,0.00,WSDL version 423,2013-01-05 21:31:00,
2013-01-05 15:32:00,47.8,27.5,30.18,WNW,285,2.8,4.9,44,0.00,,,0.00,WSDL version 423,2013-01-05 21:32:00,
2013-01-05 15:33:00,47.7,27.3,30.18,NW,315,2.7,4.9,44,0.00,,,0.00,WSDL version 423,2013-01-05 21:33:00,
2013-01-05 15:36:00,47.6,27.0,30.18,West,273,2.7,4.9,45,0.00,,,0.00,WSDL version 423,2013-01-05 21:36:00,
2013-01-05 15:37:00,47.6,27.0,30.18,West,270,3.0,4.9,44,0.00,,,0.00,WSDL version 423,2013-01-05 21:37:00,
2013-01-05 15:41:00,47.4,26.7,30.18,SW,233,2.7,4.3,44,0.00,,,0.00,WSDL version 423,2013-01-05 21:41:00,
2013-01-05 15:43:00,47.3,26.7,30.18,SW,222,2.0,4.3,45,0.00,,,0.00,WSDL version 423,2013-01-05 21:43:00,
2013-01-05 15:45:00,47.3,26.8,30.18,West,259,2.2,4.3,45,0.00,,,0.00,WSDL version 423,2013-01-05 21:45:00,
2013-01-05 15:46:00,47.3,26.9,30.18,West,259,1.8,4.0,45,0.00,,,0.00,WSDL version 423,2013-01-05 21:46:00,
2013-01-05 15:49:00,47.3,27.1,30.18,SSW,207,0.7,4.0,45,0.00,,,0.00,WSDL version 423,2013-01-05 21:49:00,
2013-01-05 15:51:00,47.2,27.0,30.18,West,267,1.9,4.7,45,0.00,,,0.00,WSDL version 423,2013-01-05 21:51:00,
2013-01-05 15:54:00,47.1,27.0,30.18,WSW,245,1.5,4.7,45,0.00,,,0.00,WSDL version 423,2013-01-05 21:54:00,
2013-01-05 15:55:00,47.1,26.9,30.18,WSW,257,1.8,4.7,45,0.00,,,0.00,WSDL version 423,2013-01-05 21:55:00,
2013-01-05 15:56:00,47.1,26.9,30.18,West,264,1.8,4.7,45,0.00,,,0.00,WSDL version 423,2013-01-05 21:56:00,
2013-01-05 15:59:00,47.1,26.9,30.18,SW,221,1.6,4.7,45,0.00,,,0.00,WSDL version 423,2013-01-05 21:59:00,
2013-01-05 16:00:00,47.1,26.9,30.18,SW,225,0.8,3.8,45,0.00,,,0.00,WSDL version 423,2013-01-05 22:00:00,
2013-01-05 16:05:00,47.0,27.1,30.18,West,260,2.1,3.6,46,0.00,,,0.00,WSDL version 423,2013-01-05 22:05:00,
2013-01-05 16:06:00,46.9,26.9,30.18,WSW,248,2.6,3.6,45,0.00,,,0.00,WSDL version 423,2013-01-05 22:06:00,
2013-01-05 16:11:00,46.7,26.5,30.18,SW,228,1.9,4.0,45,0.00,,,0.00,WSDL version 423,2013-01-05 22:11:00,
2013-01-05 16:12:00,46.6,26.5,30.18,SW,219,2.2,4.0,45,0.00,,,0.00,WSDL version 423,2013-01-05 22:12:00,
2013-01-05 16:13:00,46.6,26.5,30.18,SW,221,2.2,4.0,45,0.00,,,0.00,WSDL version 423,2013-01-05 22:13:00,
2013-01-05 16:18:00,46.4,26.5,30.18,SW,228,1.8,4.0,46,0.00,,,0.00,WSDL version 423,2013-01-05 22:18:00,
2013-01-05 16:19:00,46.4,26.7,30.18,WSW,242,1.6,4.0,46,0.00,,,0.00,WSDL version 423,2013-01-05 22:19:00,
2013-01-05 16:21:00,46.4,26.8,30.18,SW,222,1.3,4.0,46,0.00,,,0.00,WSDL version 423,2013-01-05 22:21:00,
2013-01-05 16:23:00,46.4,26.8,30.18,South,183,1.0,3.1,46,0.00,,,0.00,WSDL version 423,2013-01-05 22:23:00,
2013-01-05 16:24:00,46.4,26.7,30.18,South,180,1.2,3.1,46,0.00,,,0.00,WSDL version 423,2013-01-05 22:24:00,
2013-01-05 16:25:00,46.3,26.7,30.18,SW,222,1.8,4.0,46,0.00,,,0.00,WSDL version 423,2013-01-05 22:25:00,
2013-01-05 16:27:00,46.2,26.6,30.18,SSE,155,2.6,4.9,46,0.00,,,0.00,WSDL version 423,2013-01-05 22:27:00,
2013-01-05 16:29:00,46.2,26.6,30.18,SSW,203,1.2,4.9,46,0.00,,,0.00,WSDL version 423,2013-01-05 22:29:00,
2013-01-05 16:31:00,46.1,26.5,30.18,SSW,212,1.5,4.9,46,0.00,,,0.00,WSDL version 423,2013-01-05 22:31:00,
2013-01-05 16:33:00,46.1,26.6,30.18,SW,228,2.0,4.9,47,0.00,,,0.00,WSDL version 423,2013-01-05 22:33:00,
2013-01-05 16:34:00,46.0,26.7,30.18,WSW,244,1.5,4.9,47,0.00,,,0.00,WSDL version 423,2013-01-05 22:34:00,
2013-01-05 16:35:00,46.0,26.7,30.18,WSW,255,1.8,4.9,47,0.00,,,0.00,WSDL version 423,2013-01-05 22:35:00,
2013-01-05 16:39:00,45.9,26.6,30.18,SW,214,1.4,4.7,46,0.00,,,0.00,WSDL version 423,2013-01-05 22:39:00,
2013-01-05 16:40:00,45.9,26.6,30.18,WSW,244,1.9,4.7,46,0.00,,,0.00,WSDL version 423,2013-01-05 22:40:00,
2013-01-05 16:41:00,45.9,26.4,30.18,WSW,251,1.9,3.8,46,0.00,,,0.00,WSDL version 423,2013-01-05 22:41:00,
2013-01-05 16:43:00,45.8,26.3,30.18,SSW,209,2.1,3.8,46,0.00,,,0.00,WSDL version 423,2013-01-05 22:43:00,
2013-01-05 16:44:00,45.8,26.3,30.18,SW,225,1.9,3.8,46,0.00,,,0.00,WSDL version 423,2013-01-05 22:44:00,
2013-01-05 16:46:00,45.8,26.2,30.18,West,260,1.9,3.6,46,0.00,,,0.00,WSDL version 423,2013-01-05 22:46:00,
2013-01-05 16:48:00,45.7,26.2,30.18,SW,225,2.1,3.6,46,0.00,,,0.00,WSDL version 423,2013-01-05 22:48:00,
2013-01-05 16:51:00,45.6,26.3,30.18,SW,222,1.8,3.6,47,0.00,,,0.00,WSDL version 423,2013-01-05 22:51:00,
2013-01-05 16:53:00,45.6,26.5,30.18,NNW,328,1.5,3.6,47,0.00,,,0.00,WSDL version 423,2013-01-05 22:53:00,
2013-01-05 16:55:00,45.5,26.4,30.18,SW,222,2.2,4.0,47,0.00,,,0.00,WSDL version 423,2013-01-05 22:55:00,
2013-01-05 16:56:00,45.5,26.4,30.18,SW,223,2.5,4.0,47,0.00,,,0.00,WSDL version 423,2013-01-05 22:56:00,
2013-01-05 17:00:00,45.4,26.3,30.18,SW,225,1.2,4.0,47,0.00,,,0.00,WSDL version 423,2013-01-05 23:00:00,
2013-01-05 17:01:00,45.3,26.3,30.18,SW,231,1.2,4.0,47,0.00,,,0.00,WSDL version 423,2013-01-05 23:01:00,
2013-01-05 17:03:00,45.3,26.2,30.18,SW,222,1.7,4.0,47,0.00,,,0.00,WSDL version 423,2013-01-05 23:03:00,
2013-01-05 17:07:00,45.3,26.2,30.18,WSW,253,1.5,2.9,47,0.00,,,0.00,WSDL version 423,2013-01-05 23:07:00,
2013-01-05 17:08:00,45.3,26.2,30.18,WSW,256,1.1,2.9,47,0.00,,,0.00,WSDL version 423,2013-01-05 23:08:00,
2013-01-05 17:12:00,45.3,26.3,30.18,South,176,1.5,3.8,48,0.00,,,0.00,WSDL version 423,2013-01-05 23:12:00,
2013-01-05 17:14:00,45.2,26.5,30.18,SW,228,2.4,3.8,48,0.00,,,0.00,WSDL version 423,2013-01-05 23:14:00,
2013-01-05 17:17:00,45.1,26.5,30.18,WSW,240,1.7,4.3,48,0.00,,,0.00,WSDL version 423,2013-01-05 23:17:00,
2013-01-05 17:18:00,45.1,26.5,30.18,SSW,203,2.0,4.3,48,0.00,,,0.00,WSDL version 423,2013-01-05 23:18:00,
2013-01-05 17:19:00,45.0,26.5,30.18,SSW,193,2.1,4.3,48,0.00,,,0.00,WSDL version 423,2013-01-05 23:19:00,
2013-01-05 17:20:00,45.0,26.4,30.18,SW,228,1.6,4.3,48,0.00,,,0.00,WSDL version 423,2013-01-05 23:20:00,
2013-01-05 17:23:00,44.9,26.4,30.18,SW,222,1.9,4.3,48,0.00,,,0.00,WSDL version 423,2013-01-05 23:23:00,
2013-01-05 17:24:00,44.9,26.4,30.18,SSW,208,1.2,4.3,48,0.00,,,0.00,WSDL version 423,2013-01-05 23:24:00,
2013-01-05 17:28:00,44.9,26.4,30.18,WSW,243,1.6,3.4,48,0.00,,,0.00,WSDL version 423,2013-01-05 23:28:00,
2013-01-05 17:29:00,44.9,26.4,30.18,WSW,258,1.7,3.4,48,0.00,,,0.00,WSDL version 423,2013-01-05 23:29:00,
2013-01-05 17:31:00,44.9,26.4,30.18,WSW,244,2.9,3.6,48,0.00,,,0.00,WSDL version 423,2013-01-05 23:31:00,
2013-01-05 17:34:00,44.9,26.4,30.18,WSW,239,1.9,3.6,48,0.00,,,0.00,WSDL version 423,2013-01-05 23:34:00,
2013-01-05 17:35:00,44.9,26.4,30.18,SW,235,1.9,3.6,48,0.00,,,0.00,WSDL version 423,2013-01-05 23:35:00,
2013-01-05 17:36:00,44.9,26.4,30.18,SW,228,1.5,3.6,48,0.00,,,0.00,WSDL version 423,2013-01-05 23:36:00,
2013-01-05 17:41:00,44.8,26.2,30.18,SW,231,2.1,4.7,48,0.00,,,0.00,WSDL version 423,2013-01-05 23:41:00,
2013-01-05 17:42:00,44.8,26.2,30.18,SW,218,1.9,4.7,48,0.00,,,0.00,WSDL version 423,2013-01-05 23:42:00,
2013-01-05 17:43:00,44.8,26.2,30.18,SSW,208,2.3,4.7,48,0.00,,,0.00,WSDL version 423,2013-01-05 23:43:00,
2013-01-05 17:47:00,44.7,26.2,30.18,West,267,1.8,4.7,48,0.00,,,0.00,WSDL version 423,2013-01-05 23:47:00,
2013-01-05 17:48:00,44.7,26.2,30.18,WSW,255,1.6,4.7,48,0.00,,,0.00,WSDL version 423,2013-01-05 23:48:00,
2013-01-05 17:49:00,44.7,26.1,30.18,SW,233,1.8,3.6,48,0.00,,,0.00,WSDL version 423,2013-01-05 23:49:00,
2013-01-05 17:51:00,44.6,26.0,30.18,WSW,245,2.0,3.8,48,0.00,,,0.00,WSDL version 423,2013-01-05 23:51:00,
2013-01-05 17:54:00,44.6,26.0,30.18,South,191,2.2,3.8,48,0.00,,,0.00,WSDL version 423,2013-01-05 23:54:00,
2013-01-05 17:56:00,44.6,26.0,30.18,SE,130,2.1,3.8,48,0.00,,,0.00,WSDL version 423,2013-01-05 23:56:00,
2013-01-05 17:58:00,44.6,26.0,30.18,SW,225,1.9,3.8,48,0.00,,,0.00,WSDL version 423,2013-01-05 23:58:00,
2013-01-05 18:00:00,44.6,26.0,30.18,WSW,248,2.2,3.8,48,0.00,,,0.00,WSDL version 423,2013-01-06 00:00:00,
2013-01-05 18:01:00,44.6,26.0,30.18,WSW,238,2.6,3.6,48,0.00,,,0.00,WSDL version 423,2013-01-06 00:01:00,
2013-01-05 18:03:00,44.6,26.0,30.18,South,173,1.9,3.6,48,0.00,,,0.00,WSDL version 423,2013-01-06 00:03:00,
2013-01-05 18:06:00,44.5,25.9,30.18,West,260,1.3,3.4,48,0.00,,,0.00,WSDL version 423,2013-01-06 00:06:00,
2013-01-05 18:08:00,44.4,25.9,30.18,SSW,194,2.2,3.8,48,0.00,,,0.00,WSDL version 423,2013-01-06 00:08:00,
2013-01-05 18:12:00,44.3,25.8,30.18,SW,214,2.2,4.9,48,0.00,,,0.00,WSDL version 423,2013-01-06 00:12:00,
2013-01-05 18:14:00,44.3,25.8,30.18,SW,222,2.7,5.8,48,0.00,,,0.00,WSDL version 423,2013-01-06 00:14:00,
2013-01-05 18:17:00,44.4,25.8,30.18,West,265,2.0,5.8,48,0.00,,,0.00,WSDL version 423,2013-01-06 00:17:00,
2013-01-05 18:18:00,44.4,25.8,30.18,West,265,2.9,5.8,48,0.00,,,0.00,WSDL version 423,2013-01-06 00:18:00,
2013-01-05 18:23:00,44.5,26.0,30.18,West,259,2.9,5.8,48,0.00,,,0.00,WSDL version 423,2013-01-06 00:23:00,
2013-01-05 18:25:00,44.5,26.0,30.18,West,273,3.0,5.8,48,0.00,,,0.00,WSDL version 423,2013-01-06 00:25:00,
2013-01-05 18:27:00,44.6,26.0,30.18,WNW,287,2.3,4.9,48,0.00,,,0.00,WSDL version 423,2013-01-06 00:27:00,
2013-01-05 18:28:00,44.6,26.0,30.18,West,280,2.0,4.3,48,0.00,,,0.00,WSDL version 423,2013-01-06 00:28:00,
2013-01-05 18:29:00,44.6,26.0,30.18,West,262,1.9,4.3,48,0.00,,,0.00,WSDL version 423,2013-01-06 00:29:00,
2013-01-05 18:33:00,44.6,26.0,30.18,WSW,256,1.8,4.3,48,0.00,,,0.00,WSDL version 423,2013-01-06 00:33:00,
2013-01-05 18:34:00,44.6,26.0,30.18,West,260,1.8,4.3,48,0.00,,,0.00,WSDL version 423,2013-01-06 00:34:00,
2013-01-05 18:36:00,44.6,26.0,30.18,West,273,2.0,3.8,48,0.00,,,0.00,WSDL version 423,2013-01-06 00:36:00,
2013-01-05 18:37:00,44.6,26.0,30.18,WNW,293,1.6,3.8,48,0.00,,,0.00,WSDL version 423,2013-01-06 00:37:00,
2013-01-05 18:38:00,44.6,26.0,30.18,West,276,1.0,3.8,48,0.00,,,0.00,WSDL version 423,2013-01-06 00:38:00,
2013-01-05 18:40:00,44.6,26.0,30.18,West,270,1.9,3.8,48,0.00,,,0.00,WSDL version 423,2013-01-06 00:40:00,
2013-01-05 18:41:00,44.6,26.0,30.18,WNW,283,1.6,3.8,48,0.00,,,0.00,WSDL version 423,2013-01-06 00:41:00,
2013-01-05 18:43:00,44.6,26.0,30.18,NW,318,1.3,3.8,48,0.00,,,0.00,WSDL version 423,2013-01-06 00:43:00,
2013-01-05 18:45:00,44.6,26.1,30.18,NNW,333,1.1,3.1,48,0.00,,,0.00,WSDL version 423,2013-01-06 00:45:00,
2013-01-05 18:46:00,44.6,26.2,30.18,WSW,245,1.5,3.1,49,0.00,,,0.00,WSDL version 423,2013-01-06 00:46:00,
2013-01-05 18:47:00,44.5,26.1,30.18,West,262,0.8,3.6,48,0.00,,,0.00,WSDL version 423,2013-01-06 00:47:00,
2013-01-05 18:49:00,44.5,26.1,30.18,West,265,2.0,3.6,48,0.00,,,0.00,WSDL version 423,2013-01-06 00:49:00,
2013-01-05 18:51:00,44.4,26.0,30.18,WSW,238,1.5,3.6,49,0.00,,,0.00,WSDL version 423,2013-01-06 00:51:00,
2013-01-05 18:53:00,44.4,26.2,30.18,West,260,1.3,3.6,49,0.00,,,0.00,WSDL version 423,2013-01-06 00:53:00,
2013-01-05 18:54:00,44.4,26.3,30.18,SW,228,1.2,3.6,49,0.00,,,0.00,WSDL version 423,2013-01-06 00:54:00,
2013-01-05 18:57:00,44.4,26.3,30.18,West,267,0.5,2.9,49,0.00,,,0.00,WSDL version 423,2013-01-06 00:57:00,
2013-01-05 19:02:00,44.2,26.2,30.18,SW,215,1.3,2.9,49,0.00,,,0.00,WSDL version 423,2013-01-06 01:02:00,
2013-01-05 19:04:00,44.1,26.1,30.18,WSW,248,1.0,2.9,49,0.00,,,0.00,WSDL version 423,2013-01-06 01:04:00,
2013-01-05 19:09:00,44.0,25.9,30.18,WSW,250,0.7,2.7,49,0.00,,,0.00,WSDL version 423,2013-01-06 01:09:00,
2013-01-05 19:10:00,43.9,25.9,30.18,SSW,200,1.0,2.7,49,0.00,,,0.00,WSDL version 423,2013-01-06 01:10:00,
2013-01-05 19:11:00,43.9,25.8,30.18,SSW,203,0.3,2.2,49,0.00,,,0.00,WSDL version 423,2013-01-06 01:11:00,
2013-01-05 19:15:00,43.6,25.6,30.18,West,260,1.4,2.9,49,0.00,,,0.00,WSDL version 423,2013-01-06 01:15:00,
2013-01-05 19:16:00,43.5,25.6,30.18,SW,219,0.9,2.9,50,0.00,,,0.00,WSDL version 423,2013-01-06 01:16:00,
2013-01-05 19:18:00,43.4,25.6,30.18,SW,225,0.8,2.9,50,0.00,,,0.00,WSDL version 423,2013-01-06 01:18:00,
2013-01-05 19:21:00,43.1,25.6,30.18,West,270,1.4,2.9,50,0.00,,,0.00,WSDL version 423,2013-01-06 01:21:00,
2013-01-05 19:23:00,43.0,25.4,30.18,North,360,0.8,2.9,50,0.00,,,0.00,WSDL version 423,2013-01-06 01:23:00,
2013-01-05 19:26:00,42.8,25.3,30.18,SW,236,1.0,2.9,50,0.00,,,0.00,WSDL version 423,2013-01-06 01:26:00,
2013-01-05 19:28:00,42.6,25.2,30.18,SW,217,1.1,2.9,51,0.00,,,0.00,WSDL version 423,2013-01-06 01:28:00,
2013-01-05 19:30:00,42.4,25.0,30.18,SW,230,1.7,3.4,50,0.00,,,0.00,WSDL version 423,2013-01-06 01:30:00,
2013-01-05 19:32:00,42.3,25.1,30.18,WSW,245,1.5,3.4,51,0.00,,,0.00,WSDL version 423,2013-01-06 01:32:00,
2013-01-05 19:33:00,42.3,25.0,30.18,West,273,1.1,3.4,51,0.00,,,0.00,WSDL version 423,2013-01-06 01:33:00,
2013-01-05 19:38:00,42.1,25.1,30.18,WSW,240,1.0,3.4,51,0.00,,,0.00,WSDL version 423,2013-01-06 01:38:00,
2013-01-05 19:39:00,42.1,25.1,30.18,West,264,0.5,3.4,51,0.00,,,0.00,WSDL version 423,2013-01-06 01:39:00,
2013-01-05 19:40:00,42.0,25.0,30.18,West,280,0.0,2.7,51,0.00,,,0.00,WSDL version 423,2013-01-06 01:40:00,
2013-01-05 19:43:00,41.8,25.1,30.18,SW,231,1.3,2.7,52,0.00,,,0.00,WSDL version 423,2013-01-06 01:43:00,
2013-01-05 19:45:00,41.8,25.0,30.18,SW,220,1.1,2.7,51,0.00,,,0.00,WSDL version 423,2013-01-06 01:45:00,
2013-01-05 19:48:00,41.6,25.0,30.18,WSW,238,1.2,2.7,52,0.00,,,0.00,WSDL version 423,2013-01-06 01:48:00,
2013-01-05 19:49:00,41.5,25.0,30.18,SW,231,1.2,2.7,52,0.00,,,0.00,WSDL version 423,2013-01-06 01:49:00,
2013-01-05 19:50:00,41.5,25.0,30.18,SW,214,1.3,2.7,52,0.00,,,0.00,WSDL version 423,2013-01-06 01:50:00,
2013-01-05 19:54:00,41.2,24.8,30.18,SW,219,1.2,2.7,52,0.00,,,0.00,WSDL version 423,2013-01-06 01:54:00,
2013-01-05 19:55:00,41.1,24.8,30.18,SW,222,1.3,2.7,52,0.00,,,0.00,WSDL version 423,2013-01-06 01:55:00,
2013-01-05 19:57:00,41.0,24.9,30.18,WSW,239,1.6,2.7,52,0.00,,,0.00,WSDL version 423,2013-01-06 01:57:00,
2013-01-05 19:58:00,41.0,24.9,30.18,SW,233,1.7,2.7,52,0.00,,,0.00,WSDL version 423,2013-01-06 01:58:00,
2013-01-05 19:59:00,41.0,24.9,30.18,SW,220,1.6,2.7,52,0.00,,,0.00,WSDL version 423,2013-01-06 01:59:00,
2013-01-05 20:00:00,41.0,25.0,30.18,SW,222,1.7,2.7,53,0.00,,,0.00,WSDL version 423,2013-01-06 02:00:00,
2013-01-05 20:05:00,40.8,25.1,30.18,SW,222,1.1,2.9,53,0.00,,,0.00,WSDL version 423,2013-01-06 02:05:00,
2013-01-05 20:06:00,40.7,25.1,30.18,SW,223,1.2,2.9,53,0.00,,,0.00,WSDL version 423,2013-01-06 02:06:00,
2013-01-05 20:07:00,40.7,25.0,30.18,WSW,253,1.3,2.9,53,0.00,,,0.00,WSDL version 423,2013-01-06 02:07:00,
2013-01-05 20:11:00,40.6,25.0,30.18,West,267,1.1,2.9,53,0.00,,,0.00,WSDL version 423,2013-01-06 02:11:00,
2013-01-05 20:12:00,40.6,24.9,30.18,WSW,238,1.2,2.7,53,0.00,,,0.00,WSDL version 423,2013-01-06 02:12:00,
2013-01-05 20:17:00,40.4,25.0,30.18,WNW,293,1.3,2.7,54,0.00,,,0.00,WSDL version 423,2013-01-06 02:17:00,
2013-01-05 20:18:00,40.4,25.1,30.18,NNE,14,1.0,3.4,54,0.00,,,0.00,WSDL version 423,2013-01-06 02:18:00,
2013-01-05 20:21:00,40.4,25.2,30.18,SSW,205,0.7,3.4,54,0.00,,,0.00,WSDL version 423,2013-01-06 02:21:00,
2013-01-05 20:23:00,40.3,25.1,30.18,SW,233,0.6,3.4,54,0.00,,,0.00,WSDL version 423,2013-01-06 02:23:00,
2013-01-05 20:27:00,40.3,25.1,30.18,SW,228,0.7,3.4,54,0.00,,,0.00,WSDL version 423,2013-01-06 02:27:00,
2013-01-05 20:30:00,40.2,25.0,30.18,SW,231,0.1,2.5,54,0.00,,,0.00,WSDL version 423,2013-01-06 02:30:00,
2013-01-05 20:31:00,40.2,25.0,30.18,SW,233,0.5,2.5,54,0.00,,,0.00,WSDL version 423,2013-01-06 02:31:00,
2013-01-05 20:36:00,39.9,24.8,30.18,SW,228,1.5,3.8,54,0.00,,,0.00,WSDL version 423,2013-01-06 02:36:00,
2013-01-05 20:38:00,39.9,24.8,30.18,SW,223,1.8,3.8,55,0.00,,,0.00,WSDL version 423,2013-01-06 02:38:00,
2013-01-05 20:39:00,39.9,24.9,30.18,SW,219,1.8,3.8,55,0.00,,,0.00,WSDL version 423,2013-01-06 02:39:00,
2013-01-05 20:41:00,39.9,25.0,30.18,SE,143,1.6,4.7,55,0.00,,,0.00,WSDL version 423,2013-01-06 02:41:00,
2013-01-05 20:42:00,39.8,25.1,30.18,SSE,148,2.0,4.7,56,0.00,,,0.00,WSDL version 423,2013-01-06 02:42:00,
2013-01-05 20:44:00,39.7,25.2,30.15,SW,219,2.3,4.7,56,0.00,,,0.00,WSDL version 423,2013-01-06 02:44:00,
2013-01-05 20:47:00,39.8,25.5,30.15,SW,230,2.3,4.7,56,0.00,,,0.00,WSDL version 423,2013-01-06 02:47:00,
2013-01-05 20:49:00,39.8,25.6,30.15,WSW,241,2.8,4.7,56,0.00,,,0.00,WSDL version 423,2013-01-06 02:49:00,
2013-01-05 20:52:00,39.9,25.7,30.15,SW,236,1.9,4.3,57,0.00,,,0.00,WSDL version 423,2013-01-06 02:52:00,
2013-01-05 20:56:00,39.9,25.8,30.15,SW,214,1.6,4.3,56,0.00,,,0.00,WSDL version 423,2013-01-06 02:56:00,
2013-01-05 20:59:00,39.8,25.7,30.15,West,270,1.3,3.6,57,0.00,,,0.00,WSDL version 423,2013-01-06 02:59:00,
2013-01-05 21:00:00,39.8,25.6,30.15,West,270,2.5,3.6,56,0.00,,,0.00,WSDL version 423,2013-01-06 03:00:00,
2013-01-05 21:04:00,39.9,25.7,30.15,West,263,2.2,4.3,56,0.00,,,0.00,WSDL version 423,2013-01-06 03:04:00,
2013-01-05 21:06:00,39.9,25.6,30.15,West,267,2.3,4.3,56,0.00,,,0.00,WSDL version 423,2013-01-06 03:06:00,
2013-01-05 21:09:00,39.9,25.5,30.15,West,276,2.2,4.3,56,0.00,,,0.00,WSDL version 423,2013-01-06 03:09:00,
2013-01-05 21:13:00,39.9,25.5,30.15,West,273,2.2,3.8,56,0.00,,,0.00,WSDL version 423,2013-01-06 03:13:00,
2013-01-05 21:14:00,39.9,25.5,30.15,WNW,289,2.7,3.8,56,0.00,,,0.00,WSDL version 423,2013-01-06 03:14:00,
2013-01-05 21:15:00,39.9,25.5,30.15,NW,311,2.2,3.8,56,0.00,,,0.00,WSDL version 423,2013-01-06 03:15:00,
2013-01-05 21:18:00,39.9,25.5,30.15,NW,311,2.4,3.1,56,0.00,,,0.00,WSDL version 423,2013-01-06 03:18:00,
2013-01-05 21:20:00,39.9,25.5,30.15,WNW,287,1.5,4.0,56,0.00,,,0.00,WSDL version 423,2013-01-06 03:20:00,
2013-01-05 21:21:00,39.9,25.5,30.15,WNW,293,1.8,4.0,56,0.00,,,0.00,WSDL version 423,2013-01-06 03:21:00,
2013-01-05 21:25:00,39.9,25.5,30.15,West,273,1.1,4.0,56,0.00,,,0.00,WSDL version 423,2013-01-06 03:25:00,
2013-01-05 21:26:00,39.9,25.5,30.15,West,280,1.4,4.0,56,0.00,,,0.00,WSDL version 423,2013-01-06 03:26:00,
2013-01-05 21:28:00,39.9,25.5,30.18,WSW,254,1.3,4.0,56,0.00,,,0.00,WSDL version 423,2013-01-06 03:28:00,
2013-01-05 21:30:00,39.8,25.4,30.18,West,274,1.1,2.7,56,0.00,,,0.00,WSDL version 423,2013-01-06 03:30:00,
2013-01-05 21:31:00,39.8,25.5,30.18,West,276,0.3,2.7,57,0.00,,,0.00,WSDL version 423,2013-01-06 03:31:00,
2013-01-05 21:33:00,39.7,25.6,30.18,WSW,240,1.0,2.7,57,0.00,,,0.00,WSDL version 423,2013-01-06 03:33:00,
2013-01-05 21:36:00,39.7,25.7,30.18,WNW,293,1.1,2.7,57,0.00,,,0.00,WSDL version 423,2013-01-06 03:36:00,
2013-01-05 21:41:00,39.8,25.8,30.18,WNW,288,1.1,2.5,57,0.00,,,0.00,WSDL version 423,2013-01-06 03:41:00,
2013-01-05 21:42:00,39.8,25.8,30.18,West,263,1.2,2.2,57,0.00,,,0.00,WSDL version 423,2013-01-06 03:42:00,
2013-01-05 21:52:00,40.1,26.1,30.18,SW,236,1.0,2.2,57,0.00,,,0.00,WSDL version 423,2013-01-06 03:52:00,
2013-01-05 21:53:00,40.1,26.1,30.18,SW,229,1.2,2.2,57,0.00,,,0.00,WSDL version 423,2013-01-06 03:53:00,
2013-01-05 21:54:00,40.1,26.1,30.18,SSW,208,1.3,2.5,57,0.00,,,0.00,WSDL version 423,2013-01-06 03:54:00,
2013-01-05 21:58:00,40.2,26.3,30.18,WSW,250,0.6,2.9,58,0.00,,,0.00,WSDL version 423,2013-01-06 03:58:00,
2013-01-05 21:59:00,40.3,26.3,30.18,WSW,255,0.3,4.3,57,0.00,,,0.00,WSDL version 423,2013-01-06 03:59:00,
2013-01-05 22:03:00,40.4,26.6,30.18,West,260,2.5,4.7,58,0.00,,,0.00,WSDL version 423,2013-01-06 04:03:00,
2013-01-05 22:05:00,40.5,26.7,30.18,West,267,2.1,4.7,57,0.00,,,0.00,WSDL version 423,2013-01-06 04:05:00,
2013-01-05 22:06:00,40.5,26.7,30.18,WSW,256,1.2,4.7,57,0.00,,,0.00,WSDL version 423,2013-01-06 04:06:00,
2013-01-05 22:10:00,40.6,26.6,30.18,West,276,2.1,4.3,57,0.00,,,0.00,WSDL version 423,2013-01-06 04:10:00,
2013-01-05 22:12:00,40.7,26.6,30.15,West,270,1.7,4.3,57,0.00,,,0.00,WSDL version 423,2013-01-06 04:12:00,
2013-01-05 22:14:00,40.7,26.7,30.15,WSW,240,1.8,4.3,57,0.00,,,0.00,WSDL version 423,2013-01-06 04:14:00,
2013-01-05 22:16:00,40.8,26.8,30.15,NNW,345,2.3,4.3,57,0.00,,,0.00,WSDL version 423,2013-01-06 04:16:00,
2013-01-05 22:18:00,40.9,26.8,30.15,SW,225,1.8,4.3,57,0.00,,,0.00,WSDL version 423,2013-01-06 04:18:00,
2013-01-05 22:21:00,40.9,26.9,30.15,WSW,239,2.3,3.8,57,0.00,,,0.00,WSDL version 423,2013-01-06 04:21:00,
2013-01-05 22:23:00,41.0,26.9,30.15,WSW,244,1.9,3.8,57,0.00,,,0.00,WSDL version 423,2013-01-06 04:23:00,
2013-01-05 22:27:00,41.0,26.9,30.15,WSW,255,1.3,3.8,57,0.00,,,0.00,WSDL version 423,2013-01-06 04:27:00,
2013-01-05 22:28:00,41.0,26.9,30.15,WSW,255,1.8,4.0,57,0.00,,,0.00,WSDL version 423,2013-01-06 04:28:00,
2013-01-05 22:32:00,41.0,26.9,30.15,West,262,2.1,4.0,57,0.00,,,0.00,WSDL version 423,2013-01-06 04:32:00,
2013-01-05 22:33:00,41.0,26.9,30.15,West,276,2.3,4.0,57,0.00,,,0.00,WSDL version 423,2013-01-06 04:33:00,
2013-01-05 22:37:00,41.2,27.1,30.15,West,278,1.6,4.3,57,0.00,,,0.00,WSDL version 423,2013-01-06 04:37:00,
2013-01-05 22:39:00,41.2,27.1,30.15,West,262,2.1,4.3,57,0.00,,,0.00,WSDL version 423,2013-01-06 04:39:00,
2013-01-05 22:40:00,41.2,27.1,30.15,West,264,2.4,4.3,57,0.00,,,0.00,WSDL version 423,2013-01-06 04:40:00,
2013-01-05 22:43:00,41.2,27.1,30.15,West,276,2.6,4.3,57,0.00,,,0.00,WSDL version 423,2013-01-06 04:43:00,
2013-01-05 22:44:00,41.2,27.1,30.15,West,270,2.6,4.0,57,0.00,,,0.00,WSDL version 423,2013-01-06 04:44:00,
2013-01-05 22:48:00,41.2,27.0,30.15,West,280,2.2,4.0,56,0.00,,,0.00,WSDL version 423,2013-01-06 04:48:00,
2013-01-05 22:49:00,41.2,26.9,30.15,West,280,2.2,4.0,56,0.00,,,0.00,WSDL version 423,2013-01-06 04:49:00,
2013-01-05 22:50:00,41.2,26.8,30.15,West,276,2.2,3.1,56,0.00,,,0.00,WSDL version 423,2013-01-06 04:50:00,
2013-01-05 22:51:00,41.1,26.6,30.15,WSW,253,2.1,3.1,56,0.00,,,0.00,WSDL version 423,2013-01-06 04:51:00,
2013-01-05 22:54:00,41.0,26.6,30.15,West,260,2.3,3.6,56,0.00,,,0.00,WSDL version 423,2013-01-06 04:54:00,
2013-01-05 22:57:00,41.0,26.6,30.15,WSW,256,2.4,4.3,57,0.00,,,0.00,WSDL version 423,2013-01-06 04:57:00,
2013-01-05 22:59:00,41.0,26.8,30.15,West,259,2.2,4.3,57,0.00,,,0.00,WSDL version 423,2013-01-06 04:59:00,
2013-01-05 23:00:00,41.0,26.8,30.15,WSW,253,1.6,4.3,57,0.00,,,0.00,WSDL version 423,2013-01-06 05:00:00,
2013-01-05 23:01:00,40.9,26.8,30.15,WSW,245,1.4,4.3,56,0.00,,,0.00,WSDL version 423,2013-01-06 05:01:00,
2013-01-05 23:04:00,40.8,26.7,30.15,West,270,1.8,4.3,57,0.00,,,0.00,WSDL version 423,2013-01-06 05:04:00,
2013-01-05 23:05:00,40.8,26.7,30.15,West,267,1.7,4.3,57,0.00,,,0.00,WSDL version 423,2013-01-06 05:05:00,
2013-01-05 23:07:00,40.7,26.7,30.15,WSW,248,1.5,4.0,57,0.00,,,0.00,WSDL version 423,2013-01-06 05:07:00,
2013-01-05 23:11:00,40.6,26.5,30.15,WNW,289,2.1,4.0,57,0.00,,,0.00,WSDL version 423,2013-01-06 05:11:00,
2013-01-05 23:14:00,40.5,26.4,30.15,West,267,2.8,4.0,57,0.00,,,0.00,WSDL version 423,2013-01-06 05:14:00,
2013-01-05 23:16:00,40.4,26.4,30.15,WSW,248,2.6,4.0,57,0.00,,,0.00,WSDL version 423,2013-01-06 05:16:00,
2013-01-05 23:20:00,40.4,26.4,30.15,WSW,248,2.0,4.0,57,0.00,,,0.00,WSDL version 423,2013-01-06 05:20:00,
2013-01-05 23:23:00,40.4,26.4,30.15,West,264,2.0,4.0,57,0.00,,,0.00,WSDL version 423,2013-01-06 05:23:00,
2013-01-05 23:28:00,40.4,26.7,30.15,WSW,242,1.4,4.0,58,0.00,,,0.00,WSDL version 423,2013-01-06 05:28:00,
2013-01-05 23:29:00,40.4,26.8,30.15,SW,231,1.5,4.0,58,0.00,,,0.00,WSDL version 423,2013-01-06 05:29:00,
2013-01-05 23:33:00,40.4,26.8,30.15,WSW,250,1.0,2.9,58,0.00,,,0.00,WSDL version 423,2013-01-06 05:33:00,
2013-01-05 23:35:00,40.4,26.8,30.15,South,183,1.4,2.9,58,0.00,,,0.00,WSDL version 423,2013-01-06 05:35:00,
2013-01-05 23:40:00,40.4,26.8,30.15,SSW,208,1.4,2.7,58,0.00,,,0.00,WSDL version 423,2013-01-06 05:40:00,
2013-01-05 23:41:00,40.4,26.8,30.15,SW,220,1.3,2.7,58,0.00,,,0.00,WSDL version 423,2013-01-06 05:41:00,
2013-01-05 23:46:00,40.5,26.9,30.15,West,264,1.0,2.9,58,0.00,,,0.00,WSDL version 423,2013-01-06 05:46:00,
2013-01-05 23:50:00,40.6,27.3,30.15,WNW,289,1.1,2.9,59,0.00,,,0.00,WSDL version 423,2013-01-06 05:50:00,
2013-01-05 23:51:00,40.6,27.3,30.15,SW,231,1.3,3.4,59,0.00,,,0.00,WSDL version 423,2013-01-06 05:51:00,
2013-01-05 23:54:00,40.6,27.3,30.15,WSW,256,1.3,3.6,59,0.00,,,0.00,WSDL version 423,2013-01-06 05:54:00,
2013-01-05 23:57:00,40.6,27.3,30.15,SSW,211,2.1,3.6,59,0.00,,,0.00,WSDL version 423,2013-01-06 05:57:00,